GFSMW_925_thetae_000.txt.gz
Theta_e
347 348 348 350 352 353 353 354 354 355 355 354 354 355 353 352 353 352 350 350 349 349 349 346 346 343 343 342 343 341 341 340 340 339 337 335 336 335 334 335 334 332 332
345 344 347 349 349 351 352 353 355 356 355 355 354 354 353 353 353 352 352 351 349 349 348 344 342 342 341 340 339 340 340 340 340 339 335 337 335 335 334 332 330 322 324
346 344 344 347 348 348 351 352 354 355 355 354 354 355 354 354 353 354 350 350 350 348 346 343 337 337 338 337 338 338 340 340 340 339 338 336 337 334 334 333 327 319 322
345 344 343 345 347 348 349 349 351 353 354 353 355 355 354 353 352 351 351 352 348 347 343 332 336 337 338 339 336 339 340 340 338 338 338 336 337 336 336 329 325 320 319
344 344 343 344 345 347 348 349 349 351 353 353 354 356 354 353 351 348 348 350 349 348 335 335 336 338 340 336 336 335 337 337 337 336 335 334 333 334 331 332 328 321 319
345 344 344 344 345 346 347 347 348 349 351 351 353 354 354 353 353 348 343 349 351 338 334 335 337 338 339 333 334 334 334 335 336 337 334 332 329 330 330 331 328 327 322
346 345 344 345 346 347 347 347 347 349 350 351 353 354 354 353 354 345 343 349 343 335 333 333 336 336 330 332 333 333 333 333 335 335 332 331 331 330 330 329 327 328 323
347 346 345 345 346 347 348 348 349 349 350 352 354 354 355 355 358 349 342 345 337 335 332 334 334 328 326 331 333 332 332 333 333 335 334 332 332 332 330 328 326 323 321
347 348 346 346 346 347 348 349 350 351 351 352 354 354 356 356 360 343 340 339 336 334 332 332 330 330 328 330 332 330 331 332 334 334 334 334 333 333 332 329 324 320 324
347 347 348 347 347 347 349 350 350 351 351 352 353 353 356 358 354 332 336 336 334 331 331 330 331 332 330 330 331 330 327 331 332 333 333 333 333 334 333 331 326 323 321
345 345 348 349 348 348 349 350 351 352 353 352 353 353 355 356 334 330 328 330 333 332 328 331 332 332 332 332 331 328 329 331 332 332 333 333 333 333 332 331 328 326 323
343 343 347 349 349 348 349 350 351 352 353 352 351 351 353 350 333 332 331 334 335 335 331 332 332 332 334 333 329 328 329 330 330 331 332 332 331 331 331 331 330 328 327
340 342 344 347 348 347 349 350 351 352 352 351 350 347 347 343 335 333 331 334 334 328 330 329 331 332 331 329 328 329 329 329 330 330 331 330 330 329 329 328 328 328 328
339 341 342 343 344 344 346 349 350 351 351 349 348 345 345 344 336 333 331 331 331 328 328 331 332 331 329 329 330 329 329 330 330 331 331 328 327 326 327 327 326 326 326
334 339 341 341 341 342 343 346 348 349 350 348 345 346 346 341 335 335 335 335 335 335 334 333 332 331 329 330 331 331 331 330 332 330 328 326 324 323 323 324 325 325 325
334 334 337 338 339 340 341 345 347 348 349 347 345 343 340 338 337 338 334 339 339 338 336 335 333 331 330 330 331 332 332 330 331 329 327 325 324 322 321 324 323 323 324
335 333 332 334 335 337 340 343 346 348 349 347 345 343 340 338 337 337 333 339 341 337 335 334 333 332 331 330 331 331 330 331 330 329 328 326 324 321 320 320 321 322 324
334 332 331 333 335 336 338 341 344 347 349 347 346 343 341 337 338 335 335 338 335 333 333 333 333 331 332 332 332 332 332 331 330 329 328 325 323 321 322 320 321 322 322
333 335 334 334 335 337 339 341 344 346 348 347 345 342 340 338 338 333 333 335 333 333 333 333 333 332 331 332 333 330 331 330 328 329 326 323 322 322 320 320 321 321 320
330 332 336 337 340 341 343 344 344 346 346 345 345 343 341 339 334 332 335 334 334 334 333 333 333 331 332 333 331 331 330 329 328 326 323 322 320 319 318 319 318 317 317
336 338 340 342 342 342 345 345 344 344 344 344 343 342 342 336 337 336 335 333 333 332 331 329 328 328 326 330 332 329 330 328 326 324 323 320 317 319 319 318 316 314 313
335 338 340 342 344 345 345 342 341 341 342 342 341 340 341 339 337 335 333 331 330 330 330 327 327 324 323 331 329 330 329 327 324 323 320 316 316 315 316 314 313 312 310
337 342 343 342 342 342 342 340 339 340 340 339 339 338 337 336 335 333 331 330 330 329 327 328 326 327 329 327 328 329 326 324 321 317 315 313 312 313 314 312 311 309 308
337 340 340 338 336 337 338 339 338 339 339 337 334 333 329 329 327 327 326 327 327 327 327 328 330 329 327 327 326 324 321 318 317 315 313 312 314 314 312 311 309 306 306
336 338 337 336 335 336 338 338 339 339 338 334 333 332 331 332 330 328 328 327 327 330 330 331 330 328 326 325 322 319 317 317 315 312 311 313 312 311 310 308 306 304 303
337 336 336 337 336 337 338 337 338 338 337 334 332 329 328 327 327 326 325 329 331 330 330 328 326 324 323 321 319 318 315 312 310 309 311 310 309 306 305 304 302 301 301

GFSMW_925_thetae_003.txt.gz
Theta_e
353 354 355 356 356 357 357 357 357 357 352 354 354 354 351 355 355 354 349 350 348 348 346 346 346 345 346 346 345 345 344 342 343 341 337 338 338 336 336 336 331 329 332
355 354 355 354 355 356 357 357 358 358 352 356 356 356 355 355 354 355 353 351 350 350 349 348 345 344 344 344 344 343 342 342 342 341 339 336 338 337 335 331 324 326 327
354 353 353 353 354 355 356 357 358 357 357 359 358 356 355 355 355 355 355 354 352 349 348 344 343 340 338 339 342 341 342 340 342 342 340 336 336 334 334 334 327 326 325
350 351 351 351 353 353 354 356 357 357 359 359 358 358 355 355 355 356 355 355 350 349 346 342 331 337 340 339 340 338 342 342 339 339 340 339 338 335 334 330 328 326 324
349 350 350 349 350 352 353 354 356 356 358 359 358 357 357 356 356 355 352 354 353 349 346 338 332 335 339 339 336 340 340 340 338 337 338 337 336 336 333 330 328 327 327
349 348 348 348 349 350 351 353 354 353 355 357 359 358 357 357 357 355 350 349 350 348 348 335 335 336 338 339 335 336 334 337 338 338 337 333 331 331 331 332 330 329 328
348 349 350 348 349 349 351 352 353 353 355 356 357 358 357 358 358 356 351 348 347 346 345 334 334 338 337 335 331 331 335 335 336 338 335 335 333 333 333 332 331 331 329
348 348 349 350 349 349 350 351 351 352 354 354 354 356 356 356 357 355 351 348 346 346 340 334 332 335 334 328 330 334 334 334 334 336 334 334 335 334 334 334 333 332 330
349 349 349 348 349 349 350 351 351 351 353 354 354 356 356 357 356 355 355 349 343 343 336 332 332 334 327 327 332 331 329 330 334 336 336 335 335 335 335 335 333 332 333
350 350 351 350 349 350 350 351 351 352 352 354 355 355 357 357 356 356 357 348 342 339 335 331 332 330 330 327 329 332 331 330 330 333 337 337 335 336 335 335 333 332 330
351 352 352 349 350 350 350 351 352 352 353 354 354 355 356 356 355 356 358 351 340 338 334 331 330 332 332 331 330 331 331 331 333 336 336 336 332 333 334 334 333 332 330
352 351 351 350 349 350 350 351 352 352 353 353 354 355 355 352 348 352 353 335 335 335 332 331 331 331 335 335 335 334 331 333 334 334 335 335 335 336 335 332 333 331 331
349 350 350 352 351 351 352 351 352 352 353 353 354 354 352 350 351 352 347 331 329 333 333 331 331 331 335 336 337 333 332 333 334 334 334 335 335 334 331 332 331 330 330
349 350 351 355 354 353 353 352 352 352 353 353 354 353 350 349 345 343 336 331 333 335 335 332 331 331 333 334 333 332 329 331 333 331 334 335 332 331 331 331 331 331 330
347 350 351 356 355 354 353 352 352 352 353 354 354 352 349 346 341 339 334 332 324 328 334 329 327 330 332 332 330 331 333 335 336 335 333 331 330 327 325 326 326 329 329
344 348 349 350 351 350 350 350 351 352 353 354 353 350 347 343 340 337 335 329 328 331 330 334 330 332 333 331 330 331 335 337 337 337 332 330 329 326 324 323 320 323 327
344 345 347 348 347 347 347 347 348 350 351 352 351 348 345 342 339 337 334 332 333 334 332 332 335 335 334 332 331 331 332 335 335 331 331 331 331 327 327 324 321 323 323
344 343 340 342 343 342 343 345 347 350 351 351 350 347 344 343 341 339 336 335 332 331 334 336 337 336 336 334 333 333 332 333 333 331 331 332 330 329 325 325 325 325 326
342 343 339 340 341 340 342 345 347 349 350 350 350 346 343 343 342 340 338 335 334 335 335 336 334 335 335 333 332 330 330 331 330 331 331 329 327 324 322 320 323 324 323
342 342 342 341 343 343 343 346 347 348 350 350 349 346 343 342 341 341 341 338 337 335 335 335 333 334 333 332 331 326 327 330 331 331 328 325 323 322 319 319 322 322 322
343 343 344 344 345 347 347 349 349 350 350 349 348 345 344 343 342 341 340 337 336 335 334 334 334 334 332 331 330 328 328 328 330 330 328 324 322 317 317 318 320 319 315
345 346 347 349 347 348 349 350 350 349 348 348 344 344 343 342 341 340 337 337 337 337 337 336 336 331 331 327 325 324 327 331 329 330 326 320 315 313 313 315 316 314 312
348 346 346 348 347 347 348 347 345 343 344 344 343 343 342 339 338 337 336 336 336 335 335 334 332 332 330 326 328 330 329 328 325 321 318 316 314 313 313 314 313 312 313
347 348 349 348 346 344 343 344 342 344 343 342 341 341 342 340 338 337 335 334 334 332 330 330 332 334 330 328 323 323 323 320 318 318 316 314 313 313 315 313 312 311 310
345 347 348 348 347 344 344 343 343 343 343 343 343 342 341 338 337 334 332 332 332 329 332 332 332 334 332 328 324 322 320 319 317 315 315 316 315 315 315 313 311 310 308
347 347 347 345 343 343 342 342 342 343 343 342 341 339 336 334 332 328 325 327 328 328 331 331 331 327 328 325 323 320 318 315 312 313 315 315 314 314 313 311 309 307 305

GFSMW_925_thetae_006.txt.gz
Theta_e
350 351 353 353 353 354 356 357 356 357 357 354 353 352 351 352 352 351 355 354 353 353 353 350 350 350 349 347 344 341 339 336 338 336 335 337 339 338 337 336 330 331 333
352 353 353 353 353 355 357 358 358 358 358 355 353 352 352 351 353 353 354 354 354 354 352 352 351 350 343 344 341 340 338 337 337 338 336 335 337 337 335 332 327 328 328
353 353 353 353 353 354 357 358 359 360 359 354 354 356 355 355 354 354 355 356 356 355 354 353 348 347 339 335 340 340 338 336 340 340 337 336 335 332 334 334 329 328 327
353 353 353 353 353 353 356 358 360 361 360 358 355 355 355 351 349 350 349 353 355 354 353 350 347 340 336 339 339 338 338 339 336 336 337 338 338 335 334 332 330 329 328
351 353 353 351 352 353 355 357 360 361 361 360 359 358 357 350 349 350 353 354 352 353 348 349 343 339 337 340 340 339 339 337 335 334 334 336 333 334 333 332 330 330 329
348 350 349 349 351 352 353 355 358 361 362 361 361 360 356 354 349 352 350 347 346 348 349 349 344 338 337 340 339 338 338 337 336 335 337 332 331 331 331 330 330 330 329
348 348 350 350 350 351 352 354 356 360 361 361 360 360 360 358 355 354 350 344 344 344 346 350 344 339 340 340 337 337 336 336 336 336 334 333 332 331 331 330 330 330 330
347 348 349 349 350 351 352 354 355 359 360 360 360 360 360 359 357 355 349 345 343 341 342 349 343 340 339 339 335 334 334 334 334 335 335 333 333 331 331 330 332 333 331
349 347 349 348 349 351 352 354 356 358 359 359 360 361 361 360 355 353 354 348 346 341 345 346 343 337 339 336 334 333 334 333 333 332 333 334 330 329 330 331 333 333 333
350 348 348 348 349 350 351 354 355 357 358 358 359 359 359 360 358 356 355 350 349 347 344 344 339 337 337 335 335 333 333 333 329 328 330 333 330 331 332 332 331 331 331
351 350 349 347 349 349 350 353 355 356 358 358 357 357 357 357 359 358 358 356 354 348 345 343 338 337 336 336 336 334 332 332 331 330 333 334 336 333 330 330 329 329 329
349 351 351 349 349 350 349 350 352 355 356 356 358 357 357 356 357 359 358 355 355 346 345 342 339 337 336 336 337 335 332 331 331 332 334 335 334 334 334 332 331 329 329
350 352 352 353 352 351 351 351 353 354 354 356 357 357 356 357 357 358 356 355 349 335 337 324 331 338 337 336 337 337 336 333 332 333 334 334 334 334 332 332 329 328 328
351 353 353 354 353 353 355 355 353 353 354 355 357 358 357 356 357 356 352 350 338 330 333 323 325 329 338 337 337 336 336 333 332 334 335 335 335 333 333 332 332 331 331
351 353 354 359 362 357 356 356 355 354 354 355 356 358 358 358 356 354 349 346 330 331 323 325 327 330 338 337 335 335 334 333 334 334 335 335 336 333 332 330 328 329 328
351 353 355 357 359 357 357 357 357 356 356 357 357 357 359 358 355 351 346 343 334 330 325 325 328 333 335 332 332 333 334 334 336 337 337 335 333 334 331 328 325 325 327
350 352 354 355 357 356 357 357 356 356 356 357 358 358 358 356 353 350 347 342 335 331 333 334 334 334 336 334 333 332 332 334 336 338 336 334 331 332 333 332 330 327 327
350 351 351 354 353 352 353 353 354 355 355 357 357 357 356 354 352 349 346 343 337 334 337 338 337 336 336 337 337 334 334 336 338 338 336 333 331 331 332 332 330 328 328
350 350 348 350 350 349 350 350 351 353 354 355 355 355 353 352 349 348 347 345 341 338 340 340 339 338 338 339 338 336 335 336 337 333 330 327 326 332 330 326 327 327 326
347 348 345 347 347 346 347 349 350 352 354 354 354 354 351 351 349 348 347 344 343 341 340 340 339 339 340 338 337 335 335 335 333 328 331 331 330 329 325 323 325 325 325
348 346 345 345 346 345 347 348 349 351 352 353 354 352 351 351 350 348 346 345 343 341 342 340 339 339 336 338 336 332 333 332 332 332 333 332 327 323 320 317 321 323 322
345 343 347 349 348 348 350 351 352 353 354 354 353 351 350 349 349 347 344 342 341 342 341 340 340 339 340 339 338 333 330 331 332 335 331 329 326 318 315 314 317 317 315
345 344 348 350 351 352 352 354 357 354 354 352 349 349 349 347 345 343 341 341 341 341 340 340 340 339 339 334 332 329 328 329 332 331 327 323 318 316 315 313 314 314 317
347 345 346 350 352 352 352 354 350 351 351 350 350 348 346 346 343 343 342 343 342 340 340 339 336 334 335 333 329 328 328 326 325 323 320 319 318 317 317 317 314 317 317
346 344 346 350 352 351 351 350 349 348 349 348 348 345 344 343 344 340 338 339 336 335 336 335 332 332 334 334 331 329 327 326 325 323 322 321 321 320 320 319 318 316 314
349 349 349 351 351 351 350 350 349 349 348 346 345 344 344 343 343 338 333 332 331 328 329 332 333 332 332 330 327 324 323 321 318 318 320 320 320 319 319 318 316 313 312

GFSMW_925_thetae_009.txt.gz
Theta_e
349 349 350 350 350 351 353 355 355 355 355 355 355 354 352 352 350 349 356 358 355 354 353 353 352 351 349 348 343 341 337 338 338 336 338 337 338 338 337 334 332 333 333
348 350 351 351 351 352 353 356 357 357 357 357 356 354 351 350 348 350 351 353 354 354 354 354 349 350 346 344 342 340 339 337 338 337 336 338 339 336 335 332 330 330 330
347 350 351 351 351 352 354 357 359 359 360 357 356 355 355 353 353 351 355 354 355 354 356 355 353 350 344 332 342 341 339 337 339 338 338 338 340 337 335 335 331 330 329
347 348 352 352 352 352 354 357 360 361 361 358 357 356 353 351 347 347 347 351 356 353 354 354 348 347 336 340 340 339 340 338 336 336 336 336 337 337 336 333 333 331 330
348 348 351 351 351 352 354 357 361 362 361 361 357 355 353 349 349 346 348 351 355 351 350 349 347 343 336 340 342 340 340 341 336 334 334 337 334 335 332 334 332 331 331
348 350 348 349 350 351 353 356 362 364 363 363 360 358 357 352 348 347 350 351 350 351 349 346 346 342 338 341 341 340 340 338 339 337 337 334 332 333 332 332 331 331 330
348 349 351 351 352 353 354 356 362 367 365 363 362 361 360 358 354 354 352 349 345 346 349 347 348 343 341 341 340 340 339 338 337 338 337 335 333 332 331 330 331 332 331
350 347 349 352 354 353 356 357 360 366 366 364 363 362 361 357 354 353 352 348 346 345 350 350 347 344 341 341 340 337 336 336 337 336 336 335 333 333 331 331 332 338 334
349 348 347 348 351 351 355 357 360 364 365 362 365 364 362 360 354 352 352 352 346 344 343 348 346 344 339 341 339 335 337 336 336 335 335 335 333 330 330 331 332 333 337
348 349 348 347 348 350 353 356 359 363 362 362 364 363 363 363 360 359 356 353 348 345 344 348 346 343 338 341 338 335 335 336 335 332 331 333 332 331 331 332 332 330 330
346 349 348 347 347 348 350 354 357 359 362 361 361 361 361 361 362 360 358 357 351 351 346 348 345 340 339 338 337 337 336 336 336 335 331 332 335 334 332 330 330 328 329
344 348 349 348 348 349 348 350 352 354 359 360 361 362 361 361 361 362 361 358 354 353 349 347 345 339 339 338 338 338 336 335 334 333 332 334 334 336 337 333 333 332 330
342 347 349 350 351 349 349 348 351 350 353 357 360 361 361 362 361 362 361 360 359 355 351 347 346 340 338 338 338 338 338 337 335 334 334 335 335 335 334 334 333 331 330
346 346 350 353 355 352 352 350 349 348 350 354 355 359 361 361 361 361 361 361 359 357 351 346 345 340 339 338 339 338 338 339 338 335 334 335 336 336 336 335 335 334 333
348 350 352 360 362 358 356 354 351 351 351 354 355 358 362 361 360 359 362 362 360 357 351 345 342 341 338 338 339 337 337 338 338 335 334 335 336 335 336 335 333 333 331
339 351 353 355 363 362 361 359 356 356 354 358 358 360 364 363 362 361 362 361 358 355 349 343 339 336 335 335 336 337 335 337 337 336 336 337 337 335 332 331 332 331 330
339 349 353 356 360 357 360 361 360 357 358 360 362 362 366 365 365 363 361 359 355 352 345 340 335 334 336 336 335 332 335 336 336 337 338 338 337 333 334 334 332 330 330
341 345 350 355 358 356 357 358 359 362 363 364 363 364 365 366 365 363 359 355 352 350 345 339 335 337 338 337 335 333 334 334 334 336 337 338 338 337 333 330 329 332 332
339 345 350 353 359 357 359 361 360 361 362 362 363 363 363 364 362 360 357 353 351 350 344 339 337 340 341 340 337 336 336 337 337 337 338 339 338 332 329 328 329 330 330
339 349 350 353 357 358 357 359 358 359 360 360 360 361 361 360 359 357 355 352 351 348 345 341 341 343 343 341 338 338 338 338 338 337 339 337 330 331 331 330 327 329 330
349 351 352 358 358 356 355 358 356 356 355 356 357 359 358 358 356 354 353 352 350 347 344 342 343 343 343 342 340 339 337 337 337 338 336 334 333 330 329 326 325 327 325
351 350 355 355 353 353 355 357 357 355 356 356 357 358 357 355 354 352 352 351 347 346 346 344 345 344 343 341 340 337 337 336 336 335 333 334 334 328 324 321 318 317 317
352 350 350 353 350 353 354 358 359 357 357 357 358 356 353 352 352 352 351 347 346 344 344 343 344 344 342 340 338 337 334 332 331 331 332 330 327 323 319 318 315 314 317
351 348 350 355 356 354 354 360 359 358 358 356 353 352 351 350 348 348 346 343 343 343 344 344 344 343 341 338 334 330 329 328 328 327 325 322 321 320 321 319 319 318 319
349 348 350 353 354 354 356 354 355 356 354 354 353 350 348 347 345 341 341 342 338 340 341 341 341 338 334 333 332 330 329 330 328 328 326 325 324 323 323 322 321 320 319
347 350 349 352 353 354 354 353 353 353 352 351 350 348 346 345 343 339 332 333 333 333 333 333 334 332 332 333 333 330 327 326 324 324 323 323 322 322 321 321 321 319 317

GFSMW_925_thetae_012.txt.gz
Theta_e
348 348 349 349 349 352 355 354 353 353 359 359 356 355 356 352 352 350 351 356 356 355 352 353 352 352 348 348 343 341 339 338 339 335 338 338 336 337 336 331 332 332 333
348 350 350 350 350 352 354 356 355 356 354 357 357 355 353 352 351 352 353 353 355 352 350 350 351 352 350 347 343 340 340 338 338 336 338 343 341 337 333 331 330 329 331
346 351 352 350 351 353 356 358 359 359 358 358 356 355 354 355 354 352 353 353 354 353 353 355 353 352 345 341 342 341 341 338 341 336 339 345 344 341 335 332 331 330 330
347 350 353 353 352 353 356 358 360 359 361 356 359 357 356 356 353 352 352 352 356 353 352 351 353 348 342 344 340 340 338 340 339 338 335 334 333 343 343 336 333 331 330
347 347 352 352 352 353 357 359 362 362 362 360 357 358 357 353 351 346 347 356 354 352 355 352 349 347 332 339 342 340 336 342 337 336 339 338 336 335 335 339 335 333 332
348 348 350 351 353 353 357 357 364 364 363 364 357 359 356 353 355 352 354 355 356 353 350 350 348 344 338 343 341 340 340 338 340 338 338 336 335 337 337 340 335 333 332
350 350 351 354 354 354 356 359 364 366 364 364 364 356 359 352 354 355 351 353 352 355 351 347 347 344 339 342 340 342 340 339 337 339 336 338 332 333 332 331 335 335 332
350 351 351 353 355 354 356 359 363 366 366 364 366 362 358 361 358 354 353 353 350 347 350 346 347 345 342 340 342 340 336 338 337 335 336 336 336 333 333 331 334 337 335
351 350 353 352 355 354 356 358 364 367 368 367 366 365 361 362 362 355 354 356 349 349 351 347 351 345 344 342 341 339 337 338 338 337 336 334 334 334 331 333 331 333 337
351 351 350 353 354 355 355 358 361 367 369 368 367 366 367 362 358 355 353 352 354 346 350 349 349 347 343 341 341 338 339 336 335 335 335 336 335 333 334 333 331 332 335
345 350 350 350 353 355 356 358 359 365 368 368 367 366 366 365 360 362 356 359 351 351 350 350 349 347 345 341 341 337 335 336 336 334 334 332 333 333 333 335 333 329 328
344 347 351 350 351 353 354 357 360 363 366 367 366 366 366 366 365 361 363 359 359 354 346 348 349 347 345 340 341 337 338 340 337 336 335 333 333 334 333 334 333 333 333
347 348 349 351 351 351 353 356 358 360 365 365 365 366 365 366 365 365 361 364 359 356 353 350 349 349 343 342 341 337 337 337 335 335 334 332 333 336 335 337 334 334 333
350 352 350 354 352 351 352 354 357 358 361 363 364 364 365 365 364 365 365 362 362 360 357 353 351 350 344 342 339 341 341 338 336 337 336 335 336 336 336 334 334 334 334
351 352 354 358 355 354 353 353 353 354 355 360 362 364 365 364 364 364 365 365 363 363 360 357 353 351 346 343 343 342 342 340 340 340 336 334 336 337 336 336 335 336 334
345 354 356 364 365 358 355 353 352 352 353 355 359 361 363 365 364 364 363 365 364 365 362 359 353 351 346 340 339 340 342 340 341 340 339 335 335 335 335 335 334 334 332
344 354 357 358 362 360 357 354 352 353 352 355 357 358 361 364 365 364 364 364 365 364 362 360 353 350 345 338 335 338 339 337 338 342 338 336 336 338 337 335 333 332 331
343 344 348 357 357 359 358 357 355 354 354 359 359 360 363 366 366 365 365 365 365 364 361 358 352 345 340 337 336 335 335 336 338 339 338 336 336 338 337 335 335 333 329
347 344 338 354 356 358 357 361 359 357 362 360 368 363 371 370 369 368 367 366 364 360 356 353 347 339 338 337 337 337 335 334 336 336 336 337 337 337 336 336 334 329 330
338 344 339 355 361 360 359 361 364 362 360 365 365 368 369 371 370 368 366 361 357 354 353 349 344 339 338 340 340 339 336 336 337 336 334 336 336 336 334 332 331 332 330
340 345 356 361 363 361 362 364 364 366 364 366 366 367 367 368 367 365 360 356 353 353 350 346 343 341 338 342 343 341 337 338 338 336 338 338 336 335 333 330 330 330 329
346 359 364 367 365 362 364 367 367 366 365 365 366 366 365 363 361 357 354 354 352 350 347 345 343 342 343 342 342 341 339 339 337 338 337 336 334 334 333 327 324 322 319
360 356 365 366 363 364 364 366 364 361 362 362 364 363 361 359 357 354 353 352 350 348 346 347 346 344 342 342 341 340 338 337 336 335 336 332 330 332 328 322 320 319 319
360 359 360 364 364 362 362 364 363 362 363 363 361 358 354 354 353 353 352 349 348 346 346 346 345 343 343 341 338 338 336 333 332 330 328 328 328 326 322 322 321 320 319
359 358 360 363 364 365 363 362 363 362 358 356 354 352 350 350 349 346 347 345 343 344 345 343 342 341 341 340 336 331 330 329 328 328 328 323 323 323 322 320 321 321 320
356 357 358 359 359 358 359 360 359 356 355 354 352 349 348 346 341 338 335 338 338 336 336 338 340 338 335 333 331 330 330 329 329 328 329 327 327 326 324 324 323 322 321

GFSMW_925_thetae_015.txt.gz
Theta_e
345 349 348 348 350 350 351 352 353 355 354 350 355 349 350 352 352 351 350 349 350 350 351 351 350 351 349 348 344 341 339 336 338 333 337 337 337 336 332 332 332 334 337
345 347 348 348 351 352 351 350 350 357 356 354 352 349 356 356 352 348 345 350 352 353 350 348 347 349 352 347 343 337 338 338 337 335 337 338 339 338 331 332 330 333 334
345 347 347 348 349 352 353 351 349 352 358 355 354 353 353 354 356 353 353 354 354 352 351 351 349 351 347 346 341 338 339 337 341 335 337 335 337 339 332 330 328 329 330
345 346 347 348 348 353 354 353 351 350 356 358 356 354 352 352 354 354 352 352 353 352 353 352 351 351 340 340 339 342 339 341 337 340 334 332 331 334 337 333 330 330 329
343 346 348 348 349 351 354 356 354 353 353 356 357 355 353 350 353 353 355 354 355 354 354 352 350 350 341 341 341 339 335 340 339 338 340 337 335 334 331 332 335 332 330
342 345 347 349 349 352 356 358 358 356 357 357 357 355 354 354 354 353 352 353 355 350 350 351 352 348 339 338 341 340 335 339 340 337 337 338 336 335 334 331 330 332 333
342 342 347 349 350 353 356 359 360 360 361 359 356 358 358 356 354 349 354 356 355 353 355 354 349 347 337 342 341 338 338 338 336 335 334 337 336 333 332 331 332 331 332
343 342 346 348 350 352 356 360 361 360 361 362 359 355 359 357 353 351 358 354 353 354 351 351 349 347 340 342 341 341 339 339 333 337 335 336 335 335 333 333 332 329 331
342 344 345 347 350 351 357 358 363 362 363 363 362 360 356 358 356 353 351 355 354 355 354 349 348 346 343 336 343 341 339 339 336 334 332 332 334 333 333 331 331 331 329
343 344 344 347 350 352 355 357 363 363 364 362 364 362 360 357 356 358 355 353 353 350 350 350 348 346 344 341 339 341 339 335 338 337 336 333 330 334 333 333 333 331 331
342 345 346 348 351 352 355 357 361 364 364 364 363 364 362 361 357 358 360 352 354 351 349 350 347 347 345 341 341 341 339 337 336 337 335 335 334 334 332 333 333 331 330
343 345 346 347 352 352 353 357 363 364 364 365 365 365 364 363 362 359 359 355 353 353 351 350 348 348 347 343 340 341 340 336 339 335 335 335 336 334 332 332 332 334 333
339 346 345 348 352 353 352 356 361 365 365 366 366 365 364 366 364 361 359 357 354 353 353 350 349 348 347 345 342 339 340 337 337 337 335 334 332 330 331 334 334 335 334
338 342 346 349 350 353 353 354 358 364 366 367 367 366 365 364 364 364 360 359 363 357 356 352 350 348 347 346 343 341 340 337 337 339 338 338 335 330 334 336 335 335 333
340 343 346 346 349 352 353 354 356 358 364 366 366 365 365 364 365 364 364 361 360 362 359 356 351 349 348 347 345 340 339 339 335 339 337 335 334 332 333 335 334 334 334
346 347 347 346 347 348 351 353 355 357 360 364 364 364 364 364 364 364 364 365 363 361 362 358 354 352 351 349 346 342 341 338 339 339 337 338 336 335 335 337 336 335 334
342 345 345 348 347 348 350 352 355 356 358 360 363 363 362 363 363 364 363 364 365 363 364 361 358 355 352 350 345 343 341 340 341 339 338 341 339 336 335 335 335 335 333
339 345 347 351 351 351 350 352 353 355 356 356 360 361 362 362 364 364 364 363 365 364 364 363 361 358 353 350 345 341 341 340 341 340 340 338 338 336 335 336 337 336 334
332 332 344 349 357 353 351 351 351 353 353 354 356 359 360 362 363 364 364 364 364 365 364 363 360 356 351 348 340 335 336 340 338 337 336 338 338 336 336 334 334 333 332
330 330 334 344 352 357 354 352 351 353 351 352 355 357 358 361 364 364 364 365 365 364 362 360 357 353 348 342 341 336 334 332 333 335 335 337 336 336 334 331 332 331 330
330 332 339 349 352 357 357 354 353 352 355 352 361 360 362 366 366 366 367 366 362 361 358 355 350 347 346 342 339 337 337 338 337 336 335 335 334 333 332 331 332 331 330
349 337 351 351 356 358 360 360 358 356 356 364 366 370 370 369 368 368 363 360 357 353 351 349 346 345 342 341 338 341 342 341 337 337 336 335 335 334 333 333 329 328 326
361 362 363 364 366 362 363 365 368 364 365 368 368 367 367 365 365 358 355 353 353 351 348 346 344 344 343 343 342 342 341 339 337 338 336 335 334 333 332 331 328 323 319
360 361 362 362 363 366 366 366 365 365 365 364 361 361 359 357 355 353 352 351 350 348 347 345 344 344 343 341 341 340 339 338 337 336 334 332 329 329 329 326 322 320 320
355 360 362 363 363 364 364 363 363 362 360 357 355 354 354 352 351 350 349 349 348 345 344 345 345 343 342 342 340 335 336 336 334 330 327 326 324 323 322 321 321 321 320
356 360 360 361 362 362 361 359 359 358 354 351 350 349 345 343 344 342 340 342 343 342 344 345 342 342 340 339 335 329 328 328 328 326 326 325 324 325 325 325 323 321 321

GFSMW_925_thetae_018.txt.gz
Theta_e
347 346 347 348 350 351 352 353 352 349 350 349 354 352 350 349 348 352 350 351 351 351 349 349 351 352 350 348 345 341 338 335 337 334 336 337 336 336 335 332 341 340 339
347 345 346 347 348 351 353 353 353 351 350 350 351 351 348 348 346 350 352 351 349 349 350 350 351 350 350 347 345 341 334 338 339 334 336 334 338 332 331 331 336 336 335
347 346 346 348 349 352 353 353 353 352 351 350 349 350 349 348 352 353 352 350 348 351 350 352 349 347 350 349 345 336 336 337 341 335 336 333 335 337 330 329 331 332 331
345 345 346 346 349 351 352 352 354 354 353 353 350 352 350 354 355 355 352 348 349 352 353 350 349 349 349 346 344 338 336 338 339 338 334 332 334 332 334 332 329 329 329
344 344 346 347 347 350 351 351 352 355 355 354 353 353 351 352 353 353 354 353 353 353 353 351 351 350 348 340 339 338 339 338 336 337 336 333 334 330 328 331 332 331 329
343 343 345 346 346 349 351 351 351 355 355 356 355 353 352 352 350 349 353 354 354 355 353 352 352 349 347 341 339 338 337 338 337 337 338 338 333 334 331 328 329 331 333
342 343 344 345 346 347 351 353 352 352 356 357 356 355 354 353 351 348 350 354 355 355 354 353 352 350 348 340 338 340 339 336 338 337 336 336 334 334 333 328 330 328 331
342 343 343 345 346 347 351 354 354 353 355 357 356 355 355 353 350 349 350 352 353 354 353 351 351 350 348 338 337 339 338 337 336 336 335 336 335 334 332 331 331 326 328
340 341 342 345 346 347 352 354 355 354 356 356 356 355 354 354 352 352 355 354 354 353 353 351 353 352 348 342 335 340 339 338 337 331 336 335 335 334 333 332 334 329 326
342 342 340 344 347 347 352 354 356 356 357 357 356 355 355 356 354 355 354 353 355 354 352 353 353 351 348 342 334 338 339 339 337 335 334 333 330 332 333 332 332 330 329
341 342 341 343 346 348 352 355 357 356 357 359 358 357 355 355 356 356 355 353 352 355 353 352 351 349 347 344 336 337 340 340 334 336 336 336 333 333 334 333 334 331 332
342 340 341 341 345 349 351 355 358 357 357 359 359 359 358 357 355 355 354 354 356 354 354 353 352 349 347 345 341 338 339 339 336 335 338 337 334 334 335 333 332 332 330
338 337 339 342 344 348 350 354 357 359 359 359 360 361 360 359 358 356 355 354 354 355 354 351 350 350 348 346 345 342 338 338 338 335 336 335 334 334 335 334 332 333 335
336 336 341 342 345 348 350 353 355 360 360 361 360 360 362 361 360 358 357 356 354 358 355 353 351 349 349 347 346 344 341 338 338 336 335 337 335 334 333 331 330 334 335
335 341 340 343 346 349 350 352 355 358 360 361 362 361 361 362 361 361 359 357 356 356 356 354 353 350 349 348 347 345 343 339 339 338 336 337 337 336 336 333 330 336 335
333 336 342 345 345 349 350 351 354 359 361 362 362 363 362 362 362 362 362 359 358 358 358 357 354 353 351 349 348 347 345 342 340 339 336 334 336 337 336 334 332 333 335
333 339 343 344 346 349 350 351 354 358 362 362 363 363 363 362 362 362 362 362 360 358 360 361 358 356 354 352 349 347 345 344 342 339 338 334 337 337 337 336 335 336 334
331 339 342 343 346 349 351 351 352 356 361 362 363 364 363 362 362 362 362 362 363 361 359 359 360 360 358 355 352 349 345 343 342 341 338 337 338 337 337 336 335 335 333
331 331 341 343 345 347 350 351 352 354 356 360 361 363 362 361 362 361 362 362 363 363 362 362 360 360 357 356 353 350 344 343 342 341 340 340 339 339 337 335 336 334 331
324 327 339 348 345 345 347 349 351 353 355 356 359 361 361 360 361 361 361 362 362 363 363 362 362 360 357 356 352 348 344 342 340 340 341 338 335 337 335 335 335 333 329
325 327 327 340 351 347 347 348 350 352 353 355 356 359 360 360 360 361 361 362 362 362 361 360 360 356 356 351 350 346 339 336 335 334 334 335 335 336 335 333 332 331 329
338 329 323 326 339 351 348 347 348 350 352 353 353 354 358 358 360 362 362 362 361 359 356 355 353 354 351 348 345 342 339 337 336 337 338 337 336 335 333 332 331 330 329
353 355 328 330 336 347 351 348 348 349 350 350 354 355 356 359 362 361 360 357 357 352 349 347 347 346 345 343 341 339 339 341 341 340 338 337 335 333 331 330 331 329 327
345 354 357 357 357 354 353 351 351 352 355 357 363 364 362 361 360 358 356 354 350 348 346 346 345 345 343 342 341 340 341 341 340 337 337 335 334 331 330 330 329 326 322
328 330 342 355 358 362 362 362 358 362 363 362 361 359 355 353 348 348 349 348 350 350 347 346 345 343 342 342 342 341 340 339 337 336 335 332 328 328 327 326 323 321 319
331 330 325 326 325 327 359 362 361 359 358 355 352 345 339 335 334 340 342 348 348 346 344 343 343 343 342 341 340 335 331 336 335 332 328 326 325 323 323 323 321 321 321

GFSMW_925_thetae_021.txt.gz
Theta_e
347 348 347 347 346 349 350 351 351 351 351 351 352 351 351 351 350 350 349 349 350 350 350 349 348 347 349 349 348 344 340 336 337 335 335 337 335 338 333 339 337 339 341
349 348 348 348 347 348 350 350 351 351 352 350 350 351 352 352 350 349 350 350 350 350 351 349 348 350 351 349 347 342 337 335 338 334 333 332 334 333 330 340 337 335 336
349 349 346 345 348 348 350 350 351 350 350 349 350 353 352 350 350 348 351 350 350 351 350 350 349 350 350 349 346 343 336 336 339 335 335 332 334 334 330 337 336 335 334
347 345 346 346 347 348 350 351 351 351 350 349 350 351 351 350 349 347 347 351 351 350 349 350 350 349 348 348 348 344 334 336 338 335 333 333 335 330 329 330 334 335 334
347 346 344 346 346 348 350 351 351 351 350 350 350 350 350 348 347 346 347 351 352 348 349 351 351 348 347 350 348 342 337 337 337 336 334 332 332 330 329 328 330 329 329
346 346 345 345 347 348 350 351 351 351 351 350 350 350 350 349 347 349 353 353 353 352 352 351 352 350 348 347 343 339 338 337 336 337 336 335 332 333 329 326 328 330 332
344 344 344 344 345 348 350 351 350 352 352 351 351 351 351 350 349 349 353 353 351 353 354 352 352 351 350 347 342 339 337 336 337 335 337 337 336 333 332 328 327 327 330
342 343 343 343 345 346 349 350 350 352 353 353 352 352 352 351 350 350 350 349 349 351 353 354 352 351 350 347 344 339 338 338 336 337 335 335 335 334 332 329 330 326 327
341 342 342 342 344 345 347 350 349 350 354 354 354 353 352 351 351 351 351 351 346 352 353 353 353 352 351 348 344 337 338 339 336 335 336 336 335 334 333 333 332 328 325
340 341 341 342 343 344 345 349 350 350 351 354 354 353 353 353 352 352 352 350 346 352 351 352 353 351 351 349 346 337 337 338 338 334 334 333 334 334 333 331 331 330 328
339 340 341 341 342 344 345 348 351 350 350 353 354 353 353 353 353 353 352 350 349 353 353 353 353 350 350 350 346 340 336 338 338 336 336 333 333 331 331 333 333 333 331
339 339 340 340 341 344 344 348 350 351 351 352 353 353 353 354 354 353 353 350 350 352 353 354 353 351 351 352 347 343 338 337 338 337 335 334 335 336 333 334 333 333 331
339 338 335 336 339 343 345 349 351 352 352 353 354 354 353 353 354 354 353 352 351 354 352 353 353 351 351 351 348 345 341 337 337 336 334 332 336 336 334 334 334 333 332
339 336 334 336 339 343 346 348 351 353 353 354 355 355 355 354 353 353 354 354 353 354 354 354 353 353 352 351 349 346 344 340 339 337 337 333 334 335 334 334 334 333 332
339 335 338 336 338 342 346 348 351 354 354 355 356 356 356 356 355 355 354 353 353 354 353 354 354 352 351 351 349 347 346 345 343 339 338 337 334 335 335 335 334 332 332
339 337 338 338 339 341 345 347 351 353 355 355 356 356 357 357 357 357 356 355 354 354 354 353 353 353 351 351 350 348 347 346 344 341 340 338 336 335 336 337 336 336 333
332 330 336 337 338 341 345 346 350 352 356 357 357 357 357 358 358 358 358 357 355 355 354 354 353 354 354 353 352 350 348 346 343 343 342 339 338 337 335 336 337 337 335
328 328 331 332 337 341 345 346 349 352 355 357 358 358 358 358 359 359 359 358 357 356 355 355 354 354 354 354 353 352 348 345 344 344 344 342 341 338 334 336 337 336 335
327 327 332 335 338 341 345 347 349 351 356 357 358 359 360 359 359 359 359 360 359 356 356 356 356 356 355 357 358 354 347 344 344 344 345 342 341 340 337 338 337 335 335
322 327 333 338 339 342 345 348 348 351 356 357 358 359 360 360 360 360 359 360 360 359 357 357 357 357 357 357 357 356 348 343 344 347 343 342 341 340 339 339 337 334 333
322 323 330 339 340 343 347 348 348 350 353 356 358 359 361 361 360 360 360 360 360 360 359 359 358 359 360 358 356 354 350 347 346 344 342 340 340 335 334 334 336 333 330
352 349 324 322 338 342 345 347 348 350 351 353 356 359 360 361 360 360 360 360 360 360 360 356 357 360 359 355 351 352 348 347 340 337 335 335 336 336 335 336 334 332 331
345 352 352 344 339 332 344 343 347 349 350 352 354 355 358 359 359 359 360 360 360 360 353 352 351 346 350 349 349 347 345 341 338 336 336 338 337 336 335 333 332 332 330
329 337 341 344 337 341 349 347 345 345 348 350 352 353 357 358 358 359 360 360 360 356 352 351 347 344 347 347 343 341 339 338 337 340 339 337 336 334 332 330 331 329 327
328 328 336 336 333 335 337 340 351 350 346 348 350 351 354 357 359 357 359 359 355 353 350 347 346 343 339 341 342 340 338 338 339 339 336 335 333 331 328 328 327 326 324
330 330 330 331 333 333 335 340 346 357 351 349 354 355 356 343 338 339 338 345 347 348 348 348 346 344 342 342 342 341 341 340 339 335 334 333 329 327 326 323 322 321 321

GFSMW_925_thetae_024.txt.gz
Theta_e
346 346 345 347 347 348 349 349 350 349 349 347 346 345 348 351 352 349 347 349 348 349 350 349 350 348 347 348 348 346 342 336 336 334 336 335 336 338 334 337 338 339 340
348 346 346 345 346 347 348 349 349 350 350 348 348 348 350 350 351 349 348 348 348 349 350 349 350 348 348 349 347 345 340 333 337 333 332 337 333 333 333 340 339 338 336
349 347 346 346 345 346 348 349 349 350 350 350 349 350 351 350 350 350 349 349 349 349 350 349 350 348 349 349 348 345 341 333 338 335 334 336 338 332 330 335 338 336 335
349 347 347 346 346 345 347 348 349 350 350 350 350 349 350 350 349 351 350 348 349 349 349 350 351 349 349 348 348 346 341 333 337 334 333 334 335 335 334 330 337 336 334
349 349 347 347 347 346 346 348 348 349 349 350 350 349 350 350 350 350 349 348 348 349 350 351 350 350 350 347 346 347 341 333 336 335 333 330 331 332 330 333 330 332 331
348 347 346 347 346 346 346 347 348 349 349 349 350 349 349 349 349 349 348 347 347 349 350 350 349 350 350 347 347 348 341 336 336 337 335 332 331 330 328 331 329 329 329
347 346 346 344 346 345 346 348 349 349 349 349 349 349 348 348 348 348 347 346 348 351 351 350 350 351 351 349 347 345 341 337 335 334 336 336 335 332 330 329 328 330 329
347 347 345 344 344 345 346 348 349 349 349 349 349 349 348 348 348 348 347 345 346 350 350 352 352 351 351 350 348 343 340 337 336 335 335 336 335 334 332 330 329 331 328
343 345 345 344 344 345 346 348 349 349 349 349 349 349 349 349 349 349 348 347 348 347 350 349 351 352 352 351 349 344 341 338 337 336 336 335 334 334 333 331 329 328 332
340 342 342 343 343 344 346 347 349 349 349 350 350 350 350 349 349 350 350 349 349 349 348 347 351 353 353 351 350 346 344 338 337 337 334 335 335 334 334 332 332 332 329
338 339 340 341 342 343 344 347 348 349 349 351 351 351 350 350 350 350 351 351 350 350 350 347 350 351 353 352 351 348 345 338 337 337 336 333 332 333 333 333 331 331 329
337 339 339 340 341 341 343 345 348 348 348 351 352 352 351 351 350 350 351 351 350 351 351 346 350 351 351 352 351 349 347 340 337 337 337 335 333 332 331 330 332 332 331
337 336 337 338 339 340 342 343 346 348 348 349 352 352 352 351 351 351 351 351 351 351 351 348 350 352 352 352 351 349 349 346 340 335 336 335 334 334 334 333 332 333 332
334 336 336 337 339 340 341 343 345 347 348 348 350 352 352 352 351 351 351 351 351 351 351 350 351 352 353 352 351 350 350 349 344 339 337 336 335 333 335 335 333 333 334
336 335 336 336 336 339 341 343 345 347 349 349 349 351 351 352 352 352 352 351 351 351 351 350 351 352 351 352 351 350 350 349 346 343 339 339 337 335 331 335 335 333 333
333 336 336 336 337 339 342 343 345 348 349 350 350 351 352 351 351 351 352 352 352 352 352 351 350 352 351 350 351 352 351 349 346 344 343 340 339 335 335 334 335 335 334
324 333 336 336 336 338 341 343 345 348 350 351 351 352 352 353 353 352 352 352 352 352 353 352 351 351 352 352 352 351 351 350 348 346 344 342 342 339 337 336 335 336 337
325 329 333 335 336 337 339 341 344 348 351 351 352 353 353 354 354 354 354 353 352 352 352 352 352 351 351 351 352 352 351 349 348 347 345 345 344 343 340 338 336 336 337
322 325 328 331 335 336 337 341 344 349 351 353 353 353 354 355 355 355 355 355 354 353 352 352 351 352 351 351 351 351 349 347 348 348 346 346 344 343 342 339 337 336 337
320 323 325 327 329 333 338 342 344 348 350 353 354 354 355 355 355 356 356 356 356 355 354 353 353 354 352 352 352 352 350 345 345 345 346 346 344 343 341 339 337 338 337
328 322 328 331 334 335 339 343 344 347 349 351 354 355 356 356 356 356 357 357 357 356 355 354 353 354 354 353 353 353 351 347 343 343 344 344 343 341 340 339 338 335 335
352 347 331 329 330 339 341 344 345 346 348 351 354 355 356 357 357 357 357 357 358 358 357 355 354 354 355 355 354 355 352 351 348 346 346 344 340 338 336 335 334 334 335
344 349 345 340 342 345 343 340 343 345 347 350 353 356 357 358 358 358 358 358 358 358 358 356 355 353 353 354 355 354 354 352 349 347 341 335 335 336 335 335 335 334 333
329 340 340 336 333 340 345 346 351 350 346 347 350 353 357 358 359 359 359 359 359 358 357 357 356 353 345 348 352 351 348 346 342 336 335 337 337 336 335 334 333 332 331
332 329 331 333 332 334 334 334 339 353 356 347 346 350 354 357 359 358 357 359 359 358 359 355 353 345 343 341 340 339 341 339 336 336 337 337 335 334 333 331 329 330 328
334 334 335 335 334 334 336 338 337 334 352 356 344 348 352 355 348 340 340 356 356 358 351 344 340 337 337 338 344 344 341 338 336 337 334 333 333 331 328 327 327 325 324

GFSMW_925_thetae_027.txt.gz
Theta_e
348 347 347 348 348 349 350 351 351 351 350 349 348 347 345 345 347 348 344 346 348 348 349 351 350 349 350 351 348 348 345 341 337 338 340 338 339 338 338 343 341 344 345
350 348 348 348 349 349 350 351 352 352 350 350 348 346 345 346 350 352 351 349 348 348 349 350 352 351 351 348 350 346 343 339 339 338 339 339 338 337 336 342 341 342 339
352 350 349 348 349 349 351 351 351 352 351 349 350 349 350 350 352 353 353 348 348 348 348 349 351 350 350 352 351 347 343 340 341 335 338 339 338 339 336 340 340 339 338
351 351 350 348 348 349 350 350 351 352 353 351 351 350 349 348 350 352 353 352 349 348 348 349 350 349 352 352 351 347 344 338 340 338 337 336 341 338 338 335 339 338 337
352 352 351 349 348 348 349 350 351 351 351 352 351 352 351 350 351 352 352 351 350 348 349 349 350 350 351 351 349 347 345 341 338 340 337 337 337 337 337 338 336 337 336
352 352 350 350 349 349 348 349 351 351 351 352 352 352 352 351 351 352 351 351 352 352 349 350 350 351 351 350 350 346 347 343 337 340 338 337 336 336 337 338 337 336 335
353 353 353 351 351 350 349 348 350 351 351 351 352 352 352 352 351 351 352 351 351 351 352 349 350 352 348 350 349 347 347 344 340 336 340 340 337 336 334 334 336 335 334
351 352 354 353 352 351 350 350 350 351 351 351 351 351 351 352 351 350 351 352 351 351 351 348 349 349 349 350 350 348 346 343 340 337 336 339 340 338 336 335 335 336 335
351 351 353 352 351 352 350 350 350 351 351 351 351 351 351 351 352 350 349 351 351 351 353 347 349 350 351 351 351 348 346 342 338 338 336 337 339 338 336 334 334 334 335
348 350 352 351 350 349 350 350 350 351 352 352 351 351 351 351 351 351 350 350 350 350 351 351 351 350 350 352 351 350 347 343 341 340 339 337 338 338 337 337 336 334 334
342 345 349 350 350 348 349 350 351 352 352 352 352 351 352 351 351 351 351 350 350 350 351 351 350 352 349 352 352 351 348 345 344 339 339 338 337 337 337 336 336 335 334
343 343 344 346 347 349 348 349 350 351 352 352 352 352 352 352 352 352 351 350 350 350 350 351 351 353 351 351 352 351 349 347 346 344 340 340 338 337 337 336 337 336 335
341 344 343 346 348 348 348 348 349 350 351 352 353 353 353 353 352 352 352 351 351 351 351 352 353 353 353 352 350 351 351 349 347 345 342 340 340 338 335 335 334 334 336
343 344 344 348 347 346 347 347 348 349 350 351 352 353 354 353 353 353 352 352 352 352 352 351 351 352 353 352 351 350 352 350 348 347 344 342 340 339 334 336 337 336 336
337 340 344 349 351 347 347 346 347 349 349 351 352 354 354 354 354 353 353 353 353 352 352 352 352 352 352 351 352 351 352 351 349 348 346 344 340 337 335 336 338 338 338
335 340 346 346 348 349 347 346 347 348 350 351 351 352 354 355 355 354 354 353 354 353 354 354 353 353 352 351 351 350 351 351 350 350 348 346 343 340 338 335 334 337 339
335 337 344 346 347 345 346 346 347 347 350 351 352 352 354 355 355 355 355 354 355 354 354 354 354 354 353 350 349 349 351 351 350 350 350 347 344 344 339 339 335 334 334
334 337 333 339 344 342 342 345 346 348 350 351 352 353 353 355 355 355 355 355 355 355 355 354 354 354 353 351 348 348 350 351 351 350 350 348 346 344 342 342 339 337 335
334 334 331 333 339 342 343 345 348 350 351 352 353 353 353 355 355 355 355 355 356 356 356 355 355 354 354 352 350 348 350 351 351 351 350 348 347 346 344 342 341 339 339
330 332 330 333 336 342 342 345 348 350 353 353 353 353 354 355 356 356 356 356 355 356 356 356 355 354 354 353 351 350 350 351 351 351 349 347 346 346 345 342 343 342 341
331 328 329 333 338 338 339 347 347 351 351 352 354 355 356 356 356 357 357 357 357 357 356 356 355 355 353 355 351 351 350 351 351 350 347 347 346 345 343 341 344 342 341
352 330 334 340 345 345 343 348 352 350 351 352 354 357 357 356 356 357 356 358 358 358 358 357 356 356 355 353 353 352 351 350 350 347 347 348 349 344 343 340 341 340 337
354 349 348 349 348 349 349 351 351 350 352 353 355 357 358 358 358 359 359 359 358 358 358 357 355 355 353 355 353 353 351 349 348 347 347 348 347 344 340 339 338 335 335
351 346 345 347 348 349 351 352 354 354 352 355 356 357 359 359 360 359 359 358 358 355 352 357 356 355 354 353 350 351 350 347 347 347 344 345 342 339 336 334 334 335 335
340 342 344 344 343 343 342 341 341 353 359 354 353 356 357 358 360 360 360 359 357 358 359 359 357 357 349 343 342 339 336 337 337 339 337 335 333 331 331 332 331 334 330
341 341 341 340 340 341 341 340 340 339 346 351 353 352 353 355 358 361 354 359 359 358 357 359 358 354 349 340 343 346 338 330 335 338 333 333 333 333 333 331 330 330 329

GFSMW_925_thetae_030.txt.gz
Theta_e
350 347 348 348 349 350 351 351 352 352 353 352 351 349 346 344 343 344 347 350 353 355 357 354 353 354 352 351 351 350 349 343 342 335 338 338 338 337 337 337 336 337 338
351 349 348 348 348 350 351 352 352 353 353 352 351 347 345 344 344 345 349 353 355 357 357 355 353 354 353 353 354 350 346 343 336 338 338 339 337 336 337 336 336 336 335
353 351 349 348 348 349 351 352 354 354 355 352 352 350 347 346 347 347 352 355 357 357 358 352 351 355 352 352 354 352 349 342 339 342 340 338 339 337 336 340 336 337 335
353 352 350 349 348 349 351 352 355 356 357 355 351 351 347 346 346 348 351 353 356 356 357 354 355 358 354 354 354 353 350 348 338 340 339 342 344 339 341 337 338 337 337
353 354 352 349 349 349 350 352 354 356 356 357 352 353 352 348 346 348 350 355 356 356 355 357 358 358 356 355 357 354 352 348 339 338 339 339 338 339 338 340 338 338 337
353 353 352 349 349 349 351 352 355 357 357 357 357 356 355 353 349 350 351 352 352 354 356 356 358 358 357 357 357 356 353 350 344 338 340 337 337 337 338 338 338 338 338
352 353 354 354 350 350 351 352 354 357 357 357 357 357 357 357 355 354 354 352 351 350 351 357 357 356 359 357 357 357 353 352 348 343 339 339 338 337 335 334 336 335 335
352 353 354 353 353 351 352 352 354 357 357 356 358 358 358 356 357 356 354 354 351 351 351 355 356 357 357 357 357 357 354 351 349 345 340 338 339 339 337 336 336 337 335
352 353 353 353 353 354 354 355 355 358 358 357 358 359 358 357 354 355 357 354 354 352 353 354 357 356 357 357 358 356 355 349 349 344 344 340 337 339 337 337 336 335 337
351 352 353 353 353 354 354 355 356 357 358 357 357 358 358 358 357 357 357 356 354 355 353 356 356 356 357 358 358 355 355 353 348 344 342 343 336 338 338 337 336 335 335
349 350 351 351 352 353 354 355 356 357 357 357 358 358 357 357 358 357 357 357 356 356 357 356 356 355 357 358 359 357 354 355 352 348 344 344 341 337 336 337 336 336 336
342 344 347 349 350 352 353 354 355 355 356 357 359 359 358 358 357 358 358 358 357 357 357 357 357 356 356 357 358 358 354 355 354 352 349 344 342 343 338 337 337 335 335
340 343 343 345 349 350 351 352 354 354 354 357 357 358 358 358 358 359 358 358 358 358 357 358 359 358 356 356 357 357 357 355 355 353 352 348 343 343 338 338 335 336 337
338 340 342 344 346 348 352 354 351 352 352 354 356 358 360 359 359 359 359 359 358 359 358 358 360 358 357 356 356 356 356 356 355 355 353 350 347 344 343 340 339 336 336
335 338 346 347 350 349 352 355 352 351 352 355 355 358 359 360 359 359 359 359 359 359 359 359 359 359 357 356 357 356 355 356 356 355 355 353 350 347 345 343 340 338 339
331 332 338 344 348 350 351 351 355 352 352 355 356 357 359 361 360 360 360 360 360 360 360 359 360 360 358 355 354 355 354 356 356 356 356 354 350 348 344 341 339 340 340
333 334 337 340 346 348 349 350 354 353 353 355 358 358 360 361 361 361 361 361 360 360 360 360 360 360 359 356 354 352 353 356 356 356 356 355 353 350 348 341 339 336 337
332 334 334 335 339 343 340 347 349 353 355 357 358 359 360 362 362 362 362 362 361 361 362 361 361 361 360 358 355 353 352 355 355 356 357 356 355 353 350 348 342 339 339
334 334 333 333 334 336 339 341 348 351 354 357 359 359 360 360 361 363 363 362 362 361 361 360 361 362 361 359 357 354 352 353 356 355 356 356 357 355 350 349 347 346 344
333 333 331 332 334 338 340 343 347 350 355 356 358 358 359 359 360 362 362 361 361 360 360 360 360 361 361 361 358 356 353 353 354 356 356 354 355 355 352 348 349 348 348
336 334 335 335 336 341 343 345 347 350 353 354 354 357 359 360 360 362 362 362 361 360 361 361 360 361 361 360 359 356 353 354 354 352 355 355 354 353 351 347 346 347 348
345 348 342 336 336 343 342 346 355 351 353 354 355 358 360 359 358 362 363 362 362 362 361 360 361 360 361 360 359 358 354 354 355 354 352 354 353 349 348 346 344 345 345
349 351 338 341 349 351 348 349 352 352 352 355 357 358 360 361 360 363 364 362 362 360 360 358 361 359 361 360 358 357 356 352 354 354 354 353 350 348 344 344 343 344 343
357 354 349 350 354 356 356 357 357 355 355 356 357 358 360 361 361 360 361 360 359 361 360 361 362 360 361 361 359 354 354 354 350 353 352 349 349 346 341 340 339 341 340
349 350 352 353 352 352 352 353 357 361 357 358 359 360 360 360 362 362 360 360 360 360 361 361 359 359 359 359 358 353 350 350 345 346 346 342 337 335 337 336 337 338 339
347 347 347 347 347 346 346 346 346 348 351 355 355 354 354 356 359 360 362 359 360 360 360 360 356 353 355 358 357 347 350 346 341 340 336 335 335 335 334 335 334 337 338

GFSMW_925_thetae_033.txt.gz
Theta_e
349 347 348 347 347 347 348 350 351 351 352 353 352 350 348 347 345 344 344 349 352 354 357 355 356 353 353 353 351 350 347 344 340 337 337 338 337 338 337 337 338 338 339
352 349 348 347 347 349 350 353 354 355 354 353 352 350 348 345 344 343 346 349 353 355 357 357 354 355 352 353 354 351 349 341 337 342 337 339 337 336 338 336 335 337 335
354 351 349 347 347 349 352 354 356 356 356 354 353 352 349 346 345 345 346 351 355 356 359 358 353 356 354 353 356 352 348 343 337 343 343 343 344 336 336 337 337 337 334
353 353 350 348 347 349 351 355 357 357 357 356 353 352 350 347 345 346 346 350 355 356 357 354 354 357 353 353 356 353 351 343 339 338 340 344 346 348 344 338 338 338 337
354 354 352 348 347 348 350 353 358 358 357 357 355 353 352 346 346 346 347 350 355 357 355 357 354 356 358 352 352 355 354 347 344 339 338 338 337 339 342 345 340 338 337
353 354 352 349 347 347 349 352 358 360 360 360 356 358 353 351 347 347 348 350 352 356 357 356 358 356 357 355 358 358 356 353 344 340 341 339 340 340 340 340 341 341 337
351 353 354 353 350 348 349 352 357 362 362 362 360 359 359 356 357 352 349 350 350 349 354 356 356 356 359 357 356 359 357 355 351 346 342 340 340 339 338 337 338 338 337
350 353 354 354 353 351 352 353 358 362 363 362 361 360 360 358 355 354 352 351 350 349 349 357 357 357 358 359 358 359 358 354 354 350 341 342 341 340 339 338 338 340 337
349 351 353 354 354 353 355 355 357 361 363 361 362 363 362 360 358 357 356 357 354 350 351 356 359 357 357 358 358 357 359 354 354 350 347 343 339 340 339 338 338 338 340
347 350 352 354 355 354 354 356 357 361 362 360 362 363 363 363 360 360 361 358 357 355 355 354 356 358 358 358 359 356 357 357 352 347 346 345 339 338 339 338 337 336 336
344 349 352 352 354 354 354 356 358 361 363 362 362 362 363 363 363 361 361 361 360 360 355 358 357 358 358 358 360 357 355 358 356 350 347 346 344 339 338 338 338 337 337
342 348 352 351 352 353 354 356 357 358 362 362 362 362 363 363 363 364 361 362 362 361 361 359 360 359 359 359 360 360 353 358 358 356 351 348 346 344 340 339 338 338 338
343 348 349 351 352 352 354 355 357 357 357 360 362 364 363 364 363 363 364 362 363 363 361 362 362 361 360 359 361 361 360 358 358 357 356 353 349 346 342 339 338 339 339
340 343 344 346 351 351 356 357 356 356 357 358 359 361 364 363 363 363 364 364 363 364 363 362 363 363 362 360 360 361 361 360 359 358 358 356 353 348 347 344 340 340 339
338 339 342 346 349 354 356 357 355 356 356 358 359 361 363 364 364 364 364 364 364 364 364 363 363 364 364 361 361 360 360 361 361 359 359 358 356 351 348 346 344 342 340
333 334 336 342 347 351 356 356 358 356 356 359 359 361 363 365 366 366 365 366 365 365 365 365 364 364 364 360 359 360 361 360 361 361 360 358 356 353 350 347 347 346 344
333 333 334 336 344 345 348 352 358 358 355 358 361 361 363 366 367 367 367 366 367 366 366 365 365 365 364 362 358 357 360 361 360 361 361 360 356 355 353 349 346 345 343
333 333 333 335 337 337 342 349 351 359 359 359 360 361 362 366 367 368 368 368 367 367 367 367 366 366 365 364 360 357 356 359 360 360 361 361 356 356 355 353 347 345 342
333 333 333 333 335 335 338 342 350 354 360 362 361 361 364 365 367 368 368 368 368 367 367 367 367 366 366 365 363 360 356 358 359 359 360 360 360 359 356 355 354 349 346
333 334 332 333 334 335 336 336 341 349 360 360 362 362 364 365 367 368 368 368 368 367 366 366 366 366 366 365 364 362 359 358 359 359 359 360 360 360 359 354 356 355 350
344 340 339 338 337 337 337 345 344 347 352 357 360 363 364 366 366 366 368 369 369 366 367 366 366 366 365 366 364 363 361 359 358 359 359 361 359 359 359 357 355 355 352
346 342 342 346 347 340 341 352 355 351 354 356 359 362 364 364 364 366 368 370 369 368 367 367 367 366 366 365 365 364 361 360 359 358 358 359 359 357 357 358 355 353 352
346 338 341 350 342 343 345 352 354 357 357 360 363 363 365 366 364 367 369 368 368 366 367 366 368 367 366 366 365 362 363 360 359 358 358 357 357 356 355 355 352 351 350
350 352 353 352 348 353 356 354 354 357 358 363 364 365 366 367 365 363 365 365 364 365 365 364 365 364 364 363 365 363 361 361 358 357 357 356 355 355 352 352 350 347 346
355 353 356 357 358 360 362 362 363 360 360 360 360 361 361 363 365 365 360 362 362 361 362 363 361 361 362 361 362 364 363 353 350 353 351 346 343 342 344 345 344 343 344
351 353 353 353 353 352 353 353 353 360 363 362 362 361 359 360 362 362 364 362 361 360 360 360 359 360 361 360 359 360 360 357 353 351 346 343 343 340 339 340 339 341 343

GFSMW_925_thetae_036.txt.gz
Theta_e
351 350 349 348 349 350 352 350 350 349 353 352 354 354 351 350 348 347 344 350 351 353 354 353 354 353 353 353 349 349 346 346 339 337 339 339 338 338 336 339 340 342 341
350 352 350 349 349 350 352 352 351 351 354 354 354 353 352 350 348 346 346 349 350 354 354 355 355 355 352 352 352 352 348 342 336 341 340 346 340 336 337 336 336 338 336
352 352 351 349 349 351 352 353 353 355 356 354 355 353 352 350 349 346 345 347 349 353 355 354 354 354 354 353 348 348 349 343 337 341 346 346 343 341 337 336 334 335 334
354 352 352 350 349 351 352 354 354 355 358 355 355 355 353 352 349 346 346 349 349 354 357 354 356 354 353 353 353 352 351 344 337 338 342 342 344 347 342 337 335 338 336
354 353 352 350 349 350 354 356 357 357 359 355 358 355 354 352 347 348 347 347 351 353 357 357 354 354 353 354 353 355 348 348 345 339 338 339 340 340 347 346 342 338 338
354 355 351 350 349 350 355 357 360 359 360 359 354 359 355 353 350 347 349 351 357 356 357 358 355 354 354 356 352 353 355 352 346 343 339 339 340 341 341 348 345 342 339
354 356 356 353 351 351 354 356 361 361 360 361 359 354 361 352 354 350 346 351 353 358 358 356 358 356 352 356 357 355 357 349 352 344 343 341 341 340 339 338 343 343 340
350 355 357 355 352 351 353 355 361 362 362 361 361 357 360 359 350 357 352 347 352 353 356 353 357 356 355 355 358 358 357 357 350 352 340 344 342 340 339 339 342 345 341
348 354 356 356 353 351 353 354 358 362 363 361 363 362 356 362 359 355 355 355 349 353 351 354 357 355 357 358 356 357 360 357 355 352 348 338 343 341 341 339 338 340 348
347 353 355 357 354 352 352 353 357 361 363 363 362 364 361 361 361 358 356 354 356 350 354 357 356 359 356 360 358 360 356 357 357 354 351 343 338 339 340 339 338 337 337
347 351 356 355 356 354 354 354 355 361 363 364 364 363 364 361 360 361 359 361 355 360 352 362 358 358 360 359 360 359 358 359 357 354 350 348 340 340 340 339 339 339 337
348 349 353 355 357 357 355 355 356 359 363 365 364 363 363 364 363 360 361 362 364 357 362 356 358 361 359 360 360 361 357 360 360 355 350 351 346 340 341 344 339 338 339
345 348 352 354 357 357 357 357 357 357 362 364 365 364 363 363 364 364 361 362 362 364 361 363 361 359 361 360 361 361 361 355 361 360 355 352 351 347 339 340 341 340 339
346 349 352 354 356 356 358 358 358 358 358 363 365 364 364 364 364 364 365 362 362 363 363 363 363 364 362 362 361 362 363 361 357 361 360 357 354 349 346 340 339 340 341
347 351 352 356 357 357 358 358 358 358 358 359 363 364 364 364 364 365 365 366 364 363 364 364 364 363 365 363 362 362 363 363 361 359 361 360 359 355 350 348 344 342 338
342 343 347 348 354 359 360 358 358 359 359 359 361 363 364 364 366 365 365 366 367 366 365 366 365 364 365 365 363 362 362 364 363 362 360 361 360 359 355 351 347 343 342
334 335 340 344 350 348 358 361 360 359 360 360 362 362 363 364 365 366 366 366 367 367 367 367 366 365 365 365 364 362 362 362 363 363 362 362 361 359 358 354 350 346 346
337 342 336 340 342 342 344 352 360 359 359 362 362 364 364 365 366 367 368 368 367 368 368 368 367 367 366 365 364 363 361 361 362 362 362 362 361 361 359 356 351 349 347
339 340 334 335 338 342 343 348 351 362 363 361 363 362 365 366 367 368 369 369 369 368 369 368 368 368 367 366 365 364 361 360 361 362 362 362 362 361 359 358 353 349 349
348 351 345 345 337 342 336 354 354 358 363 363 361 362 362 365 367 368 370 370 370 370 369 369 368 368 368 367 366 365 362 360 359 360 362 362 362 362 361 358 357 354 350
348 346 346 347 346 342 342 349 350 355 358 362 362 363 363 363 365 366 370 370 371 370 370 369 369 368 368 368 367 366 364 363 360 359 360 361 361 361 361 360 357 357 355
350 346 348 347 345 349 346 348 355 345 349 353 362 364 366 365 365 367 369 370 371 371 370 370 369 369 368 368 368 367 367 364 363 361 359 359 360 360 360 360 359 357 356
354 348 347 345 343 348 346 350 356 358 354 359 363 364 366 368 365 368 369 370 371 371 371 370 370 369 368 369 368 367 367 366 365 363 362 360 359 359 359 360 359 358 357
355 358 358 361 360 348 354 358 356 355 359 364 365 366 367 368 368 366 369 368 369 370 370 370 369 368 368 369 366 368 367 367 365 365 363 361 360 357 354 357 359 357 355
356 354 359 364 363 365 363 363 364 363 363 363 368 369 368 367 369 369 365 369 368 368 368 369 367 366 367 365 358 362 365 364 364 363 360 359 358 358 349 348 349 353 355
353 356 355 355 356 356 356 357 357 361 365 365 364 364 363 365 367 369 368 364 364 364 363 362 360 360 359 358 358 359 359 357 361 355 358 359 357 353 351 346 348 351 352

GFSMW_925_thetae_039.txt.gz
Theta_e
348 350 351 350 349 349 348 346 348 348 347 347 348 350 347 349 349 347 350 348 347 349 349 350 351 352 352 350 346 343 343 342 336 338 339 340 339 338 339 341 342 342 342
349 348 347 349 350 351 349 346 349 349 349 348 349 350 352 349 349 346 348 348 349 351 352 349 353 353 353 352 351 350 346 343 336 343 342 335 336 338 339 341 341 340 342
350 348 347 347 350 351 351 350 348 351 350 349 350 348 353 352 350 348 345 352 350 351 352 353 353 355 353 350 348 351 348 339 338 340 345 338 337 338 338 336 340 338 338
348 349 347 348 349 352 351 349 349 348 352 350 353 352 352 353 352 349 345 346 350 348 350 354 351 353 353 353 349 347 348 341 337 338 342 343 344 334 335 334 334 336 334
348 349 348 348 348 351 353 350 349 349 354 353 353 354 354 353 351 350 346 344 347 346 350 355 353 353 356 354 350 355 350 344 343 337 339 338 340 342 339 337 337 338 336
349 348 348 348 348 351 353 353 351 352 354 354 354 353 355 353 352 348 346 345 348 348 350 357 356 353 353 353 353 353 350 349 344 343 340 337 338 340 340 341 341 339 338
349 348 349 347 348 351 352 355 354 354 356 356 353 356 354 353 350 350 347 347 352 351 351 357 357 354 352 353 354 351 353 346 348 347 342 341 338 340 339 342 340 340 341
349 349 348 348 348 349 352 356 356 356 356 358 356 353 359 356 352 351 349 346 351 353 353 354 358 356 354 352 356 355 352 351 345 347 341 342 342 342 339 338 340 336 338
350 351 348 348 347 348 354 355 358 357 357 359 358 355 353 360 357 350 353 355 348 353 352 354 356 357 356 352 355 359 356 356 354 346 343 341 341 342 340 339 338 339 337
350 352 349 349 348 348 352 355 359 359 358 358 359 359 353 353 361 357 350 355 352 348 355 354 356 356 355 353 352 358 358 356 357 355 349 340 340 342 342 341 339 338 337
349 353 351 350 349 348 351 354 357 360 360 360 358 360 358 355 357 361 355 349 355 355 348 351 357 355 356 354 353 354 358 358 358 358 355 351 338 337 339 342 339 338 337
345 353 352 351 350 349 350 353 354 359 360 361 359 360 361 360 356 360 361 350 354 352 357 354 356 357 356 355 357 359 357 358 356 358 356 353 349 343 333 340 340 338 338
345 352 353 352 351 350 350 352 353 357 360 361 362 361 361 362 360 358 358 362 355 354 353 358 359 359 358 358 357 356 357 357 358 356 358 355 350 347 344 337 342 341 338
344 351 352 353 353 351 351 351 352 355 359 361 362 363 362 362 362 360 358 357 361 359 358 358 360 361 358 357 358 358 356 358 356 357 360 358 353 349 347 346 339 341 342
345 348 351 352 353 353 352 352 352 353 356 361 363 363 363 362 362 362 362 361 356 361 361 361 362 360 362 360 359 358 358 358 359 356 356 360 359 356 352 348 345 338 340
341 341 346 351 353 354 354 354 354 354 355 359 362 363 363 363 361 362 362 363 363 359 360 363 361 362 363 363 360 359 360 360 360 360 357 356 360 360 358 353 350 346 340
333 333 333 339 349 355 355 356 356 356 356 356 360 362 363 363 363 362 363 363 364 364 362 360 363 362 362 363 363 362 361 360 361 360 360 358 357 360 360 358 356 353 350
335 334 332 334 336 350 357 356 356 358 357 357 358 360 362 363 363 363 363 364 364 364 365 365 363 364 363 363 363 363 363 361 360 362 361 361 359 358 360 359 358 354 352
345 345 345 344 345 341 341 358 358 358 360 358 359 359 363 363 364 364 364 364 364 365 365 366 366 365 365 364 364 363 364 362 361 361 361 362 361 360 359 360 358 355 352
345 346 345 344 343 347 345 357 360 359 360 361 362 361 362 363 363 364 364 365 365 365 365 365 366 366 366 366 365 365 363 361 361 361 360 361 361 361 361 360 359 355 353
347 348 346 347 347 342 343 349 351 361 359 359 360 362 363 364 364 364 365 366 366 367 367 367 366 367 367 367 367 366 366 363 362 361 360 359 359 361 362 361 359 358 356
349 352 348 347 344 342 350 347 345 351 358 361 360 359 359 362 365 366 367 368 368 368 368 368 368 368 368 368 367 367 367 366 364 363 362 360 358 358 359 362 362 360 358
341 352 357 358 361 353 347 350 359 358 360 356 359 361 361 361 362 365 366 369 369 369 369 369 369 369 368 368 368 368 368 368 367 365 364 363 362 360 358 358 359 361 360
341 350 354 358 363 362 361 362 364 360 354 357 368 364 364 366 366 363 366 368 370 369 369 369 368 368 367 368 368 367 367 368 367 367 366 366 364 362 361 360 358 358 355
341 345 349 355 358 356 357 357 358 361 365 355 366 368 366 367 368 366 368 369 368 368 369 368 368 368 368 366 363 363 361 363 363 362 358 359 360 358 358 355 353 353 351
340 344 347 352 353 355 354 353 353 356 360 365 366 370 367 367 368 368 366 365 368 368 367 367 367 362 361 355 354 355 355 355 354 356 354 355 358 360 359 359 357 349 349

GFSMW_925_thetae_042.txt.gz
Theta_e
348 348 348 346 347 347 345 345 345 346 348 345 346 346 345 346 347 349 348 346 345 344 349 350 348 350 350 350 346 342 342 337 337 339 338 340 339 341 342 340 344 342 341
349 348 348 347 347 347 347 346 345 346 347 345 344 345 343 344 346 349 348 348 347 345 346 347 350 350 352 351 348 348 345 340 337 340 337 331 335 339 343 340 343 342 341
351 349 349 348 347 347 347 347 346 345 345 344 345 344 342 342 346 349 348 349 348 348 349 347 349 351 352 351 349 349 347 338 337 341 341 334 333 335 340 341 343 339 339
350 349 349 349 348 348 347 347 348 347 346 346 346 344 347 351 349 348 348 347 349 350 351 350 348 353 354 353 349 346 348 337 338 340 344 344 339 330 333 336 341 340 338
350 348 348 349 349 349 348 347 349 348 348 347 347 347 348 351 352 350 349 347 350 351 350 348 352 351 353 352 351 345 349 341 336 337 341 340 342 337 334 333 336 339 336
349 348 347 347 349 349 349 348 350 350 349 349 349 348 348 348 351 352 351 348 348 351 349 348 351 352 351 353 352 351 351 347 341 338 339 338 338 339 339 336 336 336 336
348 348 347 346 349 350 349 349 350 352 351 350 350 349 348 348 348 351 350 348 346 349 348 348 353 355 353 352 351 351 353 349 344 343 342 337 337 337 338 338 338 338 338
348 347 347 346 346 351 350 349 350 351 353 351 351 351 350 349 350 351 351 348 345 345 346 347 351 356 355 352 352 353 351 352 347 345 343 342 340 340 341 338 339 333 337
348 347 347 347 347 349 351 351 350 350 353 353 353 353 352 352 352 352 350 350 347 347 347 348 350 355 356 353 352 353 354 352 349 346 344 341 341 341 341 338 338 338 335
349 347 347 347 347 348 350 351 351 350 351 354 353 352 354 354 353 352 352 349 349 348 349 350 351 353 356 355 353 353 354 356 354 352 346 343 340 340 341 342 339 338 337
349 348 347 347 347 347 350 352 352 351 352 353 354 353 352 352 357 357 353 351 351 353 349 351 352 353 354 356 355 352 353 357 356 355 355 349 338 339 340 342 341 340 338
349 348 347 347 347 347 350 351 354 353 353 354 355 356 355 353 352 356 359 355 351 350 356 351 354 354 355 355 355 353 351 356 358 356 356 356 354 348 336 339 339 341 339
349 348 347 347 347 346 348 352 353 355 354 355 355 356 357 356 354 352 355 358 356 352 350 356 352 351 354 356 355 354 352 352 354 357 356 356 356 354 349 338 335 337 341
348 350 349 347 347 346 348 351 353 357 357 357 357 356 357 358 357 355 353 356 358 356 349 353 353 358 355 356 355 354 353 353 355 355 355 354 355 356 354 350 343 337 337
348 351 350 349 348 347 347 350 352 355 357 358 358 358 357 358 359 358 356 354 356 358 357 350 355 355 358 358 357 356 354 354 356 355 354 355 355 356 356 355 352 346 343
348 351 351 350 349 348 347 349 350 353 356 358 358 358 359 358 358 360 359 357 356 355 357 359 356 357 358 358 359 358 356 356 356 356 355 353 354 354 355 357 357 355 352
346 351 351 350 350 349 348 348 350 351 355 357 357 359 359 360 360 359 360 360 359 357 355 356 358 359 359 360 360 360 359 358 358 357 356 356 355 354 354 354 356 358 357
337 331 336 344 351 351 350 350 350 351 352 355 358 358 360 360 361 360 360 360 360 361 359 356 356 358 358 358 360 361 361 359 358 358 358 358 357 356 355 356 356 357 357
341 340 341 339 343 353 353 352 352 352 352 353 354 359 360 361 361 361 360 360 360 360 361 361 360 358 358 359 359 360 361 360 360 359 359 359 359 358 358 356 356 356 356
344 341 342 342 342 345 351 354 354 354 353 353 354 355 359 360 361 361 361 361 361 361 361 362 362 362 362 361 361 361 361 359 359 360 361 360 360 360 360 359 357 357 357
349 352 353 346 343 344 344 353 354 355 356 356 355 356 356 359 360 361 361 361 362 361 362 362 363 363 364 364 364 363 363 361 361 360 360 360 360 360 360 360 360 359 359
346 350 358 358 356 347 346 342 349 355 356 357 358 357 358 358 360 360 361 362 362 363 363 362 363 363 363 365 365 365 365 365 363 362 362 361 361 360 359 359 359 360 360
339 345 350 356 358 358 359 359 360 357 358 358 358 359 361 361 361 361 361 362 362 363 364 364 364 365 366 366 366 367 367 367 366 365 364 364 363 362 362 360 359 358 358
337 341 346 348 352 355 356 356 356 359 362 354 361 360 360 361 363 363 363 364 364 365 365 365 366 366 367 367 368 367 367 367 367 367 366 366 364 363 362 360 360 360 355
335 340 342 344 348 354 353 352 350 350 355 360 362 356 365 361 362 362 363 365 366 366 367 367 367 367 367 366 367 366 366 366 365 364 361 360 358 358 359 358 358 356 354
335 338 340 340 345 350 349 349 348 352 354 356 358 364 367 365 364 361 356 362 365 367 367 367 368 365 365 365 364 360 357 356 355 354 354 354 354 354 356 358 358 359 357

GFSMW_925_thetae_045.txt.gz
Theta_e
347 347 347 347 344 342 342 344 344 345 346 346 347 348 347 347 349 349 349 348 351 352 346 347 347 349 349 348 347 342 340 341 340 339 337 338 339 341 342 341 343 341 338
348 347 347 347 346 344 341 342 344 344 346 346 348 348 347 346 347 348 349 348 349 351 348 346 348 349 350 349 347 343 342 337 338 338 334 330 335 338 341 342 342 342 341
348 347 347 346 346 345 344 342 343 344 344 346 347 346 346 344 345 347 348 348 347 346 346 345 348 351 350 349 349 348 344 338 338 339 337 331 332 334 339 342 341 343 341
348 347 347 347 346 345 346 345 343 344 345 347 347 346 345 344 344 345 347 347 348 347 347 347 346 351 349 349 351 349 348 339 338 341 344 340 336 330 335 338 341 342 340
349 348 346 346 346 346 346 346 345 344 345 346 347 345 345 344 342 342 345 348 347 348 348 349 349 346 351 352 352 348 347 342 336 339 342 342 338 334 331 330 336 341 340
350 348 347 347 347 346 346 346 345 345 345 346 346 344 345 343 342 342 344 347 347 347 348 349 350 351 350 351 352 350 344 347 336 336 339 339 340 339 336 333 333 336 337
350 349 348 348 348 347 347 346 346 346 346 345 346 345 345 344 341 343 346 348 348 347 348 349 351 350 351 351 352 352 348 349 345 339 337 339 338 337 338 336 336 335 335
349 349 347 348 348 348 347 346 347 347 346 346 347 346 346 346 345 343 347 350 349 348 346 348 349 349 351 353 352 351 350 351 348 346 342 341 337 336 338 338 337 332 334
343 346 348 346 347 348 348 348 347 348 348 347 348 348 347 347 346 346 345 349 350 349 347 345 346 347 350 354 354 352 351 351 351 348 346 343 340 341 341 340 337 336 333
344 343 346 346 345 347 348 348 347 348 349 348 348 349 349 348 347 347 346 347 350 349 347 345 345 347 347 353 355 352 351 352 352 350 347 346 343 341 340 341 341 338 336
345 343 345 347 346 347 349 349 348 348 349 350 349 349 350 349 349 349 348 347 349 349 348 346 347 348 348 350 355 354 352 351 352 353 352 349 345 343 342 340 341 341 339
345 344 345 346 346 345 348 349 349 348 348 350 351 350 350 351 350 350 350 349 349 350 349 348 347 349 350 350 353 355 354 352 353 354 355 352 352 350 345 340 340 340 340
343 344 345 345 346 346 346 349 349 349 348 349 351 351 350 350 351 352 352 351 351 351 351 352 352 349 350 352 352 353 355 354 353 351 354 354 353 352 353 352 349 339 338
342 345 346 345 346 346 346 348 350 350 349 349 350 352 352 351 350 350 351 353 353 354 353 352 350 353 351 352 353 353 354 355 354 352 350 351 353 354 352 352 353 352 347
344 346 346 345 345 346 346 348 349 351 351 351 352 352 353 353 353 352 351 351 352 352 352 354 353 350 353 353 350 350 353 355 355 354 352 351 352 351 351 352 351 352 352
345 347 346 345 346 345 345 347 349 352 352 352 352 352 353 354 354 354 353 352 352 353 353 352 352 353 351 351 353 356 354 353 354 354 352 352 352 353 353 351 351 353 352
344 347 346 345 345 345 345 346 350 351 354 354 354 354 354 354 355 355 355 354 353 352 354 354 353 353 353 351 351 353 356 357 356 355 354 354 353 354 354 353 353 352 353
341 345 346 346 346 346 345 346 349 350 354 355 355 356 356 355 355 356 357 357 355 354 354 354 355 355 354 353 353 353 355 356 357 357 356 356 356 356 355 355 355 355 355
338 337 344 346 347 347 346 346 348 350 351 353 355 356 356 357 357 356 356 357 358 357 356 355 354 353 354 355 355 355 357 357 358 357 357 357 357 356 356 356 355 356 356
350 341 339 346 349 348 347 347 348 348 349 352 354 355 356 357 357 358 358 358 358 358 359 359 358 356 355 354 354 355 356 356 357 357 358 358 358 358 358 357 356 355 356
348 355 351 341 341 348 349 348 348 349 349 349 351 354 356 357 358 358 359 358 358 358 358 358 359 359 360 359 358 357 357 356 357 357 358 358 358 359 359 359 358 358 358
342 348 354 353 345 342 349 349 350 351 352 352 351 352 353 357 358 359 359 359 359 358 359 359 360 360 360 361 361 361 361 361 359 359 359 360 360 360 360 359 359 359 359
337 342 345 351 353 355 355 354 357 356 356 354 354 353 353 353 356 358 359 359 359 359 359 359 360 360 361 361 362 362 363 363 362 362 362 362 363 362 362 361 361 360 358
334 338 341 343 348 350 349 348 349 355 358 357 357 356 357 356 356 357 358 358 359 359 359 360 361 361 362 362 363 363 364 364 364 365 364 363 363 362 363 362 362 361 360
328 336 337 339 344 348 346 348 349 348 351 357 358 359 358 358 359 359 359 359 359 360 360 360 361 362 363 364 364 365 365 365 366 364 361 360 358 359 358 356 356 356 356
330 334 336 338 343 347 347 349 350 352 352 352 353 354 359 363 359 358 350 356 361 362 363 363 363 364 365 365 366 366 365 365 364 360 358 355 353 351 351 351 351 351 352

GFSMW_925_thetae_048.txt.gz
Theta_e
345 346 346 345 346 346 346 345 343 338 341 342 344 346 346 346 347 345 346 347 348 350 347 347 348 347 345 346 346 341 340 342 339 338 337 339 339 340 340 341 340 339 338
345 346 346 345 344 344 345 345 343 340 342 343 344 346 346 347 347 347 347 348 347 350 349 347 347 346 347 346 346 343 339 337 338 337 334 336 335 337 340 341 342 342 341
347 346 346 346 344 342 342 343 344 342 343 344 345 345 347 346 347 348 348 349 348 348 351 350 349 348 348 347 348 344 343 337 338 338 336 336 338 334 338 340 341 341 341
347 346 345 346 346 343 342 342 343 342 343 343 345 345 347 346 345 346 347 347 348 347 347 348 347 348 349 349 349 348 347 341 339 341 342 335 335 339 341 338 339 340 341
347 347 346 345 346 345 344 342 342 342 342 343 344 345 346 346 345 344 346 347 347 347 347 346 348 346 349 349 349 350 346 346 337 340 342 342 336 333 333 339 336 339 339
347 346 346 346 346 346 345 344 342 342 343 343 343 344 345 345 344 344 343 344 346 346 347 347 348 349 347 350 350 350 346 346 338 337 340 340 340 336 334 334 333 334 336
348 347 347 346 346 346 344 345 344 343 343 343 344 344 344 344 345 344 343 342 343 346 346 347 348 349 349 350 350 351 349 344 346 339 336 337 338 337 337 336 335 335 335
349 348 347 346 345 346 345 345 345 344 344 344 345 345 345 345 344 343 342 340 338 341 345 346 347 348 349 350 351 350 350 349 346 347 343 340 339 337 336 337 336 339 335
347 350 348 348 346 346 346 345 345 345 344 344 345 345 345 344 344 343 344 339 339 342 345 347 346 347 349 349 351 352 350 350 350 349 347 345 342 340 338 336 339 336 340
345 347 349 347 347 347 346 346 346 345 345 345 345 345 345 344 344 344 344 344 341 344 347 348 348 346 347 348 350 353 353 351 351 351 350 348 345 344 341 341 341 338 336
345 346 348 348 347 347 347 346 345 345 345 345 345 346 346 346 345 345 345 345 344 343 347 348 347 347 345 345 348 350 354 353 350 351 352 351 349 345 344 343 340 340 340
345 343 343 346 347 347 347 347 346 345 346 346 346 346 346 347 346 346 346 346 345 345 344 349 348 346 345 346 348 348 351 354 353 351 350 351 352 352 351 350 345 341 340
342 343 342 342 346 345 346 347 347 347 347 347 347 347 347 347 347 347 347 347 347 347 346 348 348 348 347 347 348 350 349 352 353 353 351 350 350 352 352 351 351 350 346
340 343 343 341 344 345 346 348 347 347 347 348 348 348 348 348 348 348 348 348 348 348 347 347 348 348 346 348 348 350 351 351 352 352 353 352 351 349 350 351 351 351 351
324 339 343 342 343 346 345 347 348 347 347 347 349 349 349 349 349 349 349 349 349 348 348 348 348 349 349 349 352 351 350 352 353 352 353 353 353 351 350 350 350 350 351
324 329 342 343 344 345 345 346 348 348 347 347 348 349 349 349 349 349 349 350 351 351 351 350 350 349 350 350 348 349 353 351 349 350 350 351 353 352 351 351 351 352 352
332 326 340 343 344 345 345 346 348 349 349 348 348 348 350 351 351 350 349 349 349 350 351 351 351 351 350 348 349 348 348 352 353 353 353 353 352 352 352 352 352 352 353
344 339 342 344 344 345 345 345 347 349 350 349 349 349 350 351 352 352 352 351 350 350 351 352 351 351 350 349 347 347 349 350 350 351 352 353 354 355 355 354 354 354 354
349 337 342 343 344 344 345 345 348 349 351 350 350 351 351 351 352 353 353 353 353 352 351 351 352 352 352 351 349 349 351 352 352 352 352 353 353 353 354 355 354 355 355
349 345 343 343 344 344 344 346 348 350 352 352 352 353 353 353 353 352 353 354 355 354 353 353 352 353 352 352 352 352 352 352 353 353 353 354 355 355 355 356 355 355 356
344 350 343 343 345 345 344 346 347 349 350 352 353 353 354 354 354 354 354 354 355 356 356 356 355 355 354 355 355 354 354 354 354 354 354 355 354 355 356 357 356 356 358
339 343 351 350 342 345 345 346 347 347 348 350 351 353 354 355 355 356 356 356 356 356 357 357 357 357 358 358 358 358 357 356 354 355 355 356 357 357 358 359 359 359 359
335 338 344 347 348 350 348 351 354 350 348 348 349 351 353 354 355 356 356 357 357 357 357 357 357 358 358 358 359 359 359 359 357 356 357 358 359 360 360 361 361 360 358
332 335 338 341 344 345 349 351 355 354 354 352 350 349 350 352 355 356 357 357 357 357 358 357 358 358 358 358 359 360 360 360 361 361 361 358 359 360 361 361 361 361 359
330 332 335 338 341 344 348 350 349 351 355 355 356 356 353 352 352 354 356 357 357 357 357 358 358 359 359 359 360 361 361 362 362 362 356 356 355 356 356 356 355 353 352
325 331 335 337 341 344 345 349 349 348 348 349 351 352 357 356 355 353 350 355 356 357 358 358 358 359 360 361 362 362 363 363 364 359 356 354 355 354 351 349 347 342 339

GFSMW_925_thetae_051.txt.gz
Theta_e
341 343 345 346 349 349 348 347 347 345 343 344 344 344 344 346 346 345 346 346 346 347 347 348 348 347 343 344 346 344 342 341 341 342 342 339 340 344 344 344 344 343 344
342 342 345 345 347 349 349 349 347 346 340 343 344 346 347 348 350 347 345 346 346 348 349 346 348 345 346 346 345 344 343 342 341 342 341 342 341 341 343 344 344 345 344
343 344 345 346 346 347 348 348 348 346 342 343 345 344 346 346 348 349 347 346 347 347 350 348 348 345 345 349 348 346 345 341 342 339 341 341 341 341 342 343 345 345 345
345 345 345 345 345 347 347 348 347 346 344 340 345 345 347 347 349 350 350 347 347 347 348 349 350 348 349 348 349 346 346 342 343 343 343 336 341 341 342 342 342 343 344
348 347 347 346 346 346 346 347 347 345 345 344 345 346 347 348 349 349 347 347 348 348 347 347 347 348 349 348 348 349 347 346 343 343 345 346 341 337 341 341 341 342 342
350 349 347 346 347 347 346 345 346 345 345 344 343 345 348 348 348 348 348 349 350 348 347 347 347 348 349 349 351 350 349 345 342 342 344 344 344 342 340 340 342 341 341
352 350 350 348 347 348 347 346 345 346 345 346 344 345 345 346 346 348 348 347 349 350 348 346 347 350 348 348 349 351 351 346 346 338 340 342 342 342 342 341 341 341 342
352 351 350 349 349 348 348 347 346 346 345 345 345 344 343 347 347 347 347 347 347 347 350 345 346 346 348 349 350 353 353 353 348 347 344 344 342 340 341 341 341 343 343
352 351 350 349 349 349 349 348 348 347 346 347 346 346 345 346 346 346 346 347 346 346 348 342 345 346 346 348 351 354 354 354 353 353 351 349 347 344 342 341 341 342 345
353 352 351 349 349 349 349 348 348 348 347 346 347 347 347 346 346 346 346 346 346 343 345 342 345 347 346 347 350 353 354 355 354 353 354 352 351 348 346 345 343 342 342
352 352 352 350 350 349 349 349 348 348 348 347 347 347 348 348 348 348 347 345 344 344 341 342 344 347 349 349 349 351 354 356 356 355 355 355 353 351 349 347 346 344 343
350 351 351 351 350 350 349 349 349 348 348 348 347 347 347 348 348 347 348 346 345 344 344 342 345 347 349 352 351 353 352 355 356 357 356 355 354 354 353 351 350 347 346
348 349 348 351 351 351 351 350 349 348 348 348 348 348 348 348 348 348 348 348 347 344 345 345 344 347 350 350 350 350 353 354 355 357 357 356 356 356 354 355 353 352 351
345 349 349 353 353 352 352 351 350 349 349 349 349 349 349 349 349 349 348 349 347 345 345 346 346 347 352 353 353 353 353 354 355 355 357 357 357 357 357 356 356 355 354
333 345 349 352 352 353 352 351 351 350 349 350 350 350 350 349 349 350 350 349 349 349 346 346 348 349 351 350 353 353 354 354 355 356 356 357 356 354 354 356 356 355 355
349 343 338 350 352 350 352 351 351 351 350 350 351 351 351 350 350 351 351 351 350 350 349 351 351 351 350 348 349 349 353 355 356 356 356 355 352 348 348 349 352 353 356
348 351 348 337 350 348 350 350 351 351 351 351 351 352 352 352 352 352 352 353 353 352 351 352 352 352 351 349 346 346 349 352 355 356 356 355 353 353 353 353 350 351 351
346 348 350 342 341 344 347 349 351 351 351 352 352 352 353 353 353 353 353 353 354 355 354 354 353 353 352 350 348 346 347 351 352 353 353 355 355 355 356 356 356 357 357
342 348 351 343 341 347 348 350 352 352 352 352 352 352 353 353 353 354 353 352 352 352 353 354 355 354 353 351 349 349 350 351 353 353 353 353 353 352 352 354 354 355 355
343 351 347 343 346 349 349 351 351 353 353 352 353 352 352 353 354 355 355 354 354 353 353 353 354 355 355 353 349 350 351 352 352 352 353 352 352 352 352 353 354 356 355
344 352 349 349 350 349 349 351 352 354 353 353 353 353 353 354 354 355 356 356 356 356 356 355 355 355 355 355 353 351 351 352 353 353 353 353 353 353 352 352 354 356 357
344 348 352 349 349 349 350 352 354 353 354 354 354 355 355 355 355 356 356 356 357 358 358 358 358 358 358 356 354 353 353 353 356 357 357 358 357 356 355 355 356 357 358
341 346 350 351 352 350 350 352 353 353 354 356 357 357 357 357 357 358 358 357 358 358 359 359 359 359 360 360 359 357 357 356 354 357 358 358 358 357 357 358 358 359 358
338 345 349 350 351 353 355 356 357 353 353 354 356 357 357 358 358 358 358 358 359 359 359 359 360 360 360 361 361 359 357 358 357 356 355 356 356 357 358 358 359 359 359
332 339 344 347 348 349 350 350 353 358 356 354 354 355 356 356 358 358 358 358 359 359 359 360 360 361 361 362 361 362 361 359 357 357 354 355 354 355 355 356 357 356 354
328 329 327 338 345 345 343 344 345 346 351 355 357 358 355 353 355 358 350 356 357 358 359 359 360 361 361 361 360 359 359 360 360 357 357 357 355 354 355 353 350 350 347

GFSMW_925_thetae_054.txt.gz
Theta_e
346 344 344 344 343 345 346 346 346 346 346 345 346 347 348 348 350 350 352 353 353 353 351 351 351 348 348 350 350 348 348 343 343 339 341 342 343 344 343 342 340 342 342
347 345 345 344 344 346 346 347 347 347 347 344 344 346 347 348 349 351 353 354 353 355 354 351 351 348 347 350 350 348 345 343 342 341 338 342 339 340 341 341 342 342 342
348 346 346 345 345 346 348 348 348 348 348 342 344 347 349 351 353 353 352 354 354 354 355 351 351 351 350 347 348 350 347 343 344 346 341 338 342 339 341 342 342 344 343
348 347 346 346 345 346 349 349 350 350 349 346 342 346 349 348 347 349 349 351 355 354 355 356 353 352 351 352 349 351 348 347 342 344 342 344 343 343 345 341 342 342 342
347 347 346 347 346 345 346 350 351 352 349 348 343 345 348 344 346 348 351 353 356 355 354 356 356 352 350 351 353 351 350 345 344 341 343 344 341 342 341 342 342 342 341
350 347 345 346 347 347 346 348 351 353 351 349 347 347 347 345 345 349 350 350 350 353 355 356 357 356 352 352 352 353 353 351 348 343 344 342 342 342 342 341 342 341 341
353 351 349 348 347 347 347 348 350 353 353 351 348 346 347 348 348 351 349 347 348 349 351 356 357 355 356 355 354 353 355 355 349 348 342 343 343 344 344 343 341 342 342
354 353 352 349 349 349 348 348 350 353 353 352 352 350 349 347 349 351 349 349 347 347 349 355 355 356 355 355 356 354 353 355 352 353 348 343 342 342 343 343 343 344 344
353 354 353 351 349 350 351 351 351 352 353 351 353 353 351 349 349 349 351 349 349 347 348 351 354 354 354 355 355 353 356 355 355 353 353 351 346 345 343 343 343 343 346
352 353 354 352 351 350 350 351 351 352 353 351 352 352 351 351 350 350 350 351 350 351 348 351 352 351 353 355 356 353 355 356 355 353 354 354 348 348 346 345 344 344 343
351 352 353 352 352 351 350 351 351 352 351 352 351 351 351 351 352 351 352 353 353 352 353 351 350 350 354 355 355 354 353 357 357 355 354 357 357 352 348 347 346 345 344
348 351 352 351 352 352 351 350 351 351 352 351 353 353 352 352 352 353 352 354 355 354 354 353 352 350 352 354 356 355 352 355 356 357 357 356 354 357 356 351 348 346 345
343 349 351 353 352 352 352 351 351 350 351 352 352 352 352 352 352 353 353 354 355 355 354 354 354 352 352 354 356 356 354 354 355 356 356 356 357 356 354 353 351 350 352
343 347 349 351 352 352 354 353 351 350 349 351 351 352 352 352 352 353 354 354 354 355 355 354 354 354 352 351 353 354 355 354 355 356 356 357 358 358 359 359 358 358 357
335 341 346 350 354 354 356 355 352 352 350 352 352 353 354 353 353 354 354 354 354 355 356 355 354 354 353 350 351 352 353 354 355 355 357 357 358 359 359 359 358 358 357
345 342 341 348 351 352 355 356 356 353 353 354 354 354 356 355 356 356 356 356 355 355 356 356 355 354 353 349 348 350 351 352 354 356 356 357 357 358 357 356 353 353 359
347 348 349 347 344 349 352 355 358 355 354 356 356 356 357 358 357 357 357 357 357 356 357 357 356 355 355 352 349 348 348 350 352 355 355 355 352 355 357 357 356 355 353
344 348 349 349 349 343 347 351 355 357 357 358 358 357 358 359 359 359 359 359 357 358 358 358 358 357 356 354 352 349 350 350 351 352 353 355 354 353 353 355 356 356 357
344 346 347 349 350 351 342 348 352 355 358 359 359 359 359 359 359 359 359 358 358 359 358 358 358 358 358 355 353 352 351 351 352 352 353 354 355 355 355 355 355 354 353
345 347 349 351 352 352 342 346 351 354 359 359 359 359 359 360 359 360 360 359 359 359 359 359 359 359 359 358 355 353 352 351 352 352 354 353 353 354 354 355 354 356 353
346 350 354 354 350 348 342 350 353 355 357 356 356 357 359 360 360 360 360 360 359 358 358 358 358 359 359 359 358 354 354 352 351 351 349 350 351 351 351 350 353 354 354
349 353 354 352 348 347 348 355 358 355 356 356 356 358 359 358 359 361 361 360 360 360 361 360 359 358 359 358 359 357 355 353 353 352 350 352 353 354 354 354 354 354 354
340 352 355 355 353 351 351 354 357 356 357 357 358 358 359 359 358 360 361 361 361 361 361 361 360 359 359 360 359 357 356 355 354 355 357 358 360 360 359 358 357 357 354
327 335 351 354 357 357 355 356 357 357 358 359 359 359 360 360 359 360 361 360 360 360 360 360 360 360 360 361 362 360 358 356 355 353 355 358 359 359 360 361 360 358 358
329 328 332 347 348 349 350 353 358 357 358 359 360 361 361 360 361 361 360 361 360 359 361 360 361 361 361 362 363 364 364 360 356 356 357 358 358 359 361 361 362 361 359
326 328 330 332 338 339 343 346 351 354 359 358 358 358 358 361 361 362 357 355 356 358 360 360 360 362 362 362 363 362 363 363 361 357 360 360 360 360 361 361 360 357 356

GFSMW_925_thetae_057.txt.gz
Theta_e
349 346 344 344 343 344 344 345 346 347 348 350 349 348 348 348 350 349 353 354 355 353 354 352 351 352 351 345 346 341 345 340 340 338 339 340 340 341 340 339 340 340 341
350 347 345 344 343 344 345 346 347 349 348 348 348 348 348 347 347 347 352 353 352 354 352 352 351 351 349 351 349 349 345 342 339 341 342 344 340 340 341 339 339 341 341
351 349 346 345 344 344 345 347 349 349 349 347 347 349 349 348 348 349 351 353 354 353 355 353 353 352 352 350 351 351 349 346 340 342 344 345 347 342 339 340 341 342 343
351 350 348 346 345 345 347 348 349 350 350 347 345 348 348 347 347 350 349 352 354 354 354 354 354 354 352 349 350 351 350 348 341 340 340 343 344 349 352 341 341 342 342
351 350 349 347 346 345 348 348 350 351 350 349 346 347 349 347 347 347 352 350 354 355 353 356 354 355 353 354 352 354 352 346 346 341 341 342 340 341 345 347 342 342 341
351 350 348 348 347 346 347 349 352 354 353 351 345 348 347 348 345 346 352 349 353 354 355 355 356 355 352 354 355 354 353 353 347 347 343 342 342 342 341 341 343 341 341
351 351 350 348 349 348 347 350 354 357 355 354 349 349 349 347 351 350 348 348 347 348 352 355 357 356 356 356 355 356 354 354 350 349 344 343 343 343 343 342 342 342 342
352 351 350 348 350 350 350 349 355 357 357 355 353 349 350 347 347 347 348 347 346 345 355 358 355 356 357 356 356 355 354 354 354 353 347 345 343 342 342 343 344 346 345
353 353 351 348 349 350 352 351 353 357 357 355 355 354 351 347 344 344 348 350 346 347 348 353 356 355 354 355 355 353 356 357 356 353 354 351 345 345 344 344 344 344 348
352 353 354 351 349 350 350 352 353 356 357 355 356 355 354 352 348 348 354 350 350 349 350 349 352 355 354 354 355 352 353 356 355 352 353 353 349 347 347 346 345 344 344
350 352 354 352 351 351 350 351 352 354 356 356 356 354 354 354 351 354 354 354 353 353 352 353 352 353 353 353 356 354 353 355 355 355 354 356 355 354 349 347 346 345 345
347 350 351 352 353 352 352 352 352 352 355 356 357 355 355 353 352 351 354 355 355 355 355 356 354 354 351 353 356 356 352 356 356 355 355 355 355 357 356 354 350 348 347
343 348 349 351 353 353 353 352 352 352 353 355 356 356 355 355 353 355 354 354 356 357 357 356 357 355 352 353 356 357 356 354 355 355 356 356 356 357 355 356 351 349 351
344 345 349 351 352 354 356 355 352 352 352 353 354 355 357 356 355 356 356 356 357 358 358 358 358 357 355 353 353 356 357 356 354 355 356 356 357 358 359 359 358 357 356
340 344 346 355 361 357 358 357 354 354 352 353 353 354 357 357 357 356 358 357 358 359 359 359 359 358 356 355 353 355 356 357 356 355 356 356 356 357 358 359 358 358 359
338 338 344 348 351 353 359 359 357 356 354 355 354 354 357 358 358 357 358 359 359 360 360 360 360 359 356 353 352 352 353 355 356 357 357 356 356 356 356 358 358 357 359
343 345 345 343 346 349 353 357 359 357 357 357 357 356 357 359 358 358 359 360 360 360 361 361 360 361 359 354 352 350 351 354 355 356 357 357 353 355 358 359 358 357 356
345 346 347 347 346 346 349 351 356 359 359 359 360 358 360 360 360 360 361 361 362 361 362 362 361 361 361 358 353 352 349 350 352 355 355 357 355 355 356 358 358 358 359
348 347 346 346 347 349 346 347 353 361 360 362 360 361 360 363 363 363 363 363 363 363 362 362 363 363 362 358 355 354 351 352 353 353 353 355 357 358 356 353 356 357 358
346 349 350 350 351 351 351 350 348 356 363 362 362 362 362 364 365 365 365 364 364 364 361 362 363 364 364 362 358 355 354 353 353 355 355 355 353 355 356 357 357 359 360
344 346 353 354 354 355 353 354 349 354 359 362 362 364 363 364 365 366 365 366 365 362 364 363 363 363 362 364 361 357 356 354 353 353 350 352 352 352 350 350 355 357 357
332 338 354 357 355 355 356 359 358 352 358 360 362 364 365 363 364 366 366 366 366 365 366 365 366 363 364 362 363 362 359 356 355 351 346 347 347 348 349 350 350 351 352
328 333 346 361 359 355 350 358 355 357 360 362 363 364 365 365 363 366 367 366 366 363 363 363 362 360 359 362 361 360 360 359 356 354 351 349 350 355 355 354 354 356 356
327 330 338 346 355 355 359 361 360 359 362 364 364 364 365 365 364 365 365 364 363 363 362 361 360 359 356 353 356 359 358 358 358 356 355 355 356 359 360 361 361 359 359
327 328 330 333 336 340 343 348 357 360 361 363 363 363 363 362 364 363 363 362 361 361 361 358 356 354 356 356 358 360 363 358 356 357 357 356 356 358 360 361 362 362 362
327 326 326 328 329 331 332 336 345 357 361 363 363 362 361 362 363 362 357 358 357 357 358 357 358 361 359 359 361 360 363 364 361 356 359 360 361 361 362 362 364 364 363

GFSMW_925_thetae_060.txt.gz
Theta_e
349 346 345 344 345 345 344 348 348 349 348 350 352 349 349 348 351 350 349 354 355 353 355 351 349 353 342 347 345 342 342 343 340 340 340 340 341 340 343 342 340 339 344
350 348 346 344 345 346 346 347 349 350 348 351 351 351 348 350 345 352 354 352 355 353 354 352 350 351 348 347 350 344 343 345 337 340 344 348 341 341 340 341 341 341 341
352 350 347 346 344 347 347 347 349 351 348 351 349 350 351 352 349 354 353 353 353 353 353 352 353 348 351 350 351 350 350 348 341 339 344 350 345 346 339 338 343 339 342
353 351 349 347 345 348 348 348 351 354 348 349 348 350 352 350 346 354 354 351 354 354 355 353 355 351 352 350 347 350 348 344 344 341 341 342 343 348 347 343 344 342 343
352 352 350 348 346 348 349 350 351 354 351 348 351 349 351 349 351 350 349 354 354 354 354 355 354 353 351 352 352 351 351 352 350 346 340 341 342 342 346 349 345 342 343
352 352 350 348 347 348 348 351 352 353 352 347 350 350 348 351 349 348 353 355 353 354 355 355 353 354 353 353 353 354 352 351 349 349 347 341 343 343 344 349 344 345 340
353 353 353 351 349 348 349 351 353 354 354 353 347 353 349 347 350 350 353 352 356 354 354 356 354 353 353 353 354 353 355 352 354 349 347 347 344 343 344 342 349 345 342
352 353 353 352 350 349 349 351 355 355 354 357 350 348 352 346 347 352 347 351 348 353 352 353 354 354 354 355 354 354 355 353 351 351 345 346 348 342 342 343 345 352 350
348 353 353 351 352 351 350 352 355 356 356 354 356 349 352 352 349 350 349 348 348 349 354 351 357 354 356 354 354 353 353 355 353 352 349 344 346 347 343 343 344 346 353
346 349 353 351 352 352 352 351 355 357 358 357 357 355 347 352 348 345 348 348 350 345 355 355 354 355 356 355 356 354 352 353 354 354 354 350 346 348 349 346 346 345 345
351 351 352 352 351 352 353 352 353 359 360 359 357 356 355 350 347 349 343 352 348 354 347 354 355 355 354 356 356 352 354 353 353 355 356 352 352 351 354 352 347 346 346
351 348 344 343 352 352 353 354 353 355 359 360 359 357 356 353 352 346 352 349 352 349 356 350 355 353 356 356 355 357 354 355 354 355 352 357 358 357 351 352 353 354 352
346 345 347 350 354 352 353 354 354 354 358 360 359 359 358 357 354 352 347 354 354 357 354 357 353 356 355 354 354 357 357 354 358 358 357 354 355 355 359 357 356 352 352
350 349 351 356 356 354 354 354 354 354 355 358 359 359 359 358 356 356 351 356 357 355 357 357 359 358 357 355 354 358 359 357 355 358 354 357 358 358 358 357 355 355 356
344 343 350 353 357 357 356 355 355 354 354 355 357 359 359 358 358 356 356 351 355 358 358 358 359 360 360 358 354 355 359 359 358 357 357 357 358 358 358 360 360 360 360
338 344 348 353 355 359 359 357 356 356 355 355 357 357 359 359 358 357 357 357 356 357 359 361 360 362 361 359 355 355 356 359 359 359 358 358 357 355 354 356 359 358 358
347 351 352 352 348 343 349 360 358 356 356 356 356 357 359 360 359 359 357 360 359 360 360 361 361 362 362 359 355 354 355 356 358 359 359 359 358 357 356 356 355 355 355
350 351 347 349 348 344 344 359 360 359 359 357 359 358 358 359 360 360 361 359 361 361 361 362 362 362 362 361 357 354 353 354 355 355 356 358 358 355 356 358 359 359 358
341 348 347 347 350 351 350 353 360 360 359 362 359 361 358 360 360 361 361 361 361 362 362 362 363 362 362 362 360 355 353 352 353 352 354 358 358 356 352 349 352 355 358
337 344 347 349 351 351 351 352 353 364 361 359 362 360 361 360 362 361 361 361 361 362 363 362 363 363 363 362 362 359 356 353 354 354 353 353 350 352 359 361 358 358 356
334 335 339 346 351 358 355 354 354 355 364 361 360 363 363 361 363 363 362 363 363 363 364 364 363 364 364 364 363 361 359 356 356 355 355 356 355 353 351 350 351 356 356
328 330 335 345 357 362 362 358 359 355 356 364 363 363 363 365 363 365 365 365 365 365 365 365 365 365 366 365 365 365 360 358 357 357 357 355 353 353 351 351 350 350 350
328 328 331 336 340 343 355 365 362 360 357 360 365 364 366 365 364 366 367 367 367 367 366 366 367 366 366 366 365 364 364 362 358 357 357 355 353 350 349 349 350 350 351
328 326 328 329 332 333 340 347 351 363 363 356 367 365 367 367 366 366 367 368 368 368 367 366 367 366 365 365 367 365 363 362 362 360 358 357 355 354 357 360 359 355 354
326 326 326 326 326 328 334 338 340 349 363 364 367 367 367 367 367 365 367 367 367 367 367 366 364 366 364 362 361 363 361 361 360 360 358 358 357 355 356 359 362 362 361
324 326 325 324 325 325 326 329 333 337 352 368 368 367 367 367 367 365 361 366 367 366 365 363 364 359 359 356 357 355 359 357 358 356 359 359 359 359 357 358 360 363 364

GFSMW_925_thetae_063.txt.gz
Theta_e
345 344 344 343 345 344 342 344 346 347 346 349 345 349 348 350 350 351 351 352 352 353 350 352 350 346 346 346 344 345 344 342 342 343 344 343 344 342 342 341 344 342 342
346 344 344 343 346 346 343 344 347 348 347 350 346 348 349 348 349 350 348 349 353 353 351 349 349 350 344 347 344 344 342 347 339 342 345 342 339 339 341 341 341 340 341
347 344 343 343 345 347 344 344 348 348 347 349 348 351 349 347 347 350 351 353 354 352 352 351 351 349 348 347 348 344 346 349 342 339 343 344 342 345 340 341 342 339 341
347 344 344 343 346 345 347 345 351 348 347 346 346 351 351 350 346 350 352 353 354 352 352 351 352 350 349 349 348 347 347 349 345 343 341 343 342 342 340 340 343 341 343
347 345 344 344 346 346 345 347 350 348 347 350 348 348 350 353 350 349 352 353 353 353 352 353 352 351 351 349 348 351 347 351 352 349 347 342 339 342 343 341 345 342 342
349 346 344 345 345 347 346 347 351 350 347 347 350 348 349 350 352 352 354 351 354 354 353 353 350 350 348 352 351 352 351 348 350 349 349 345 343 344 344 344 344 342 341
349 348 345 345 345 348 347 348 352 353 349 346 350 348 348 349 351 352 350 353 352 354 354 355 353 352 351 353 352 353 354 350 350 348 346 346 348 344 344 345 346 344 343
344 349 347 345 346 349 349 349 350 352 353 348 347 350 347 347 348 353 353 351 353 351 351 355 353 351 351 351 351 353 352 352 349 348 347 344 346 347 344 342 344 341 345
351 351 348 347 346 347 348 350 351 350 353 351 346 348 350 346 346 348 354 355 355 354 348 352 355 351 352 349 353 352 352 353 352 351 348 343 344 346 347 343 343 344 343
353 350 348 349 347 347 349 349 352 351 353 353 350 346 349 348 345 345 347 352 348 351 352 353 353 353 352 354 353 353 352 352 352 351 351 347 339 340 347 351 345 346 346
349 349 349 346 347 347 348 350 353 352 353 353 354 349 347 350 348 347 345 349 349 350 348 354 353 354 354 354 356 354 352 354 352 353 353 353 352 347 347 351 353 348 346
344 348 347 342 342 345 348 349 352 354 354 354 353 355 349 346 350 347 344 347 347 349 354 353 352 356 356 355 355 355 353 352 355 353 353 355 356 352 354 350 350 351 353
348 345 344 345 344 342 342 350 350 355 355 356 354 355 355 349 347 347 344 340 343 346 347 356 357 356 354 353 353 355 354 352 352 354 354 353 352 358 357 355 357 356 355
346 344 341 338 337 339 342 350 351 352 357 357 358 356 356 355 349 347 345 347 345 345 346 349 355 352 353 353 353 354 354 352 352 356 358 356 355 354 354 354 355 355 355
348 345 342 340 348 344 350 351 351 351 354 358 359 358 357 356 355 351 350 343 351 347 354 353 355 357 353 354 353 353 354 354 354 351 352 358 356 354 356 357 357 358 359
341 346 345 342 347 344 343 348 351 353 352 356 359 359 358 357 357 356 354 352 346 356 349 356 356 357 359 356 354 353 353 357 358 357 354 353 355 356 355 355 357 358 360
339 339 346 345 345 346 346 344 351 353 354 353 357 358 358 358 357 357 356 356 353 351 359 355 355 356 356 358 357 355 354 353 356 358 358 356 355 355 357 357 356 356 355
338 339 340 339 343 342 347 350 351 353 352 354 354 357 358 358 358 357 357 356 356 353 352 357 358 358 358 358 360 358 356 355 353 352 356 358 356 355 355 356 356 356 355
332 334 334 336 339 345 343 348 348 353 351 354 356 357 357 359 359 358 358 357 357 357 355 356 358 360 360 359 360 360 358 355 355 354 353 354 355 355 356 356 355 356 359
329 329 331 333 336 343 348 348 341 344 349 356 357 357 357 358 359 359 357 359 357 357 359 358 359 360 360 360 360 360 360 356 353 354 354 354 354 354 356 356 355 355 354
328 328 329 330 335 340 340 358 354 353 354 356 360 359 358 357 359 359 359 358 360 359 358 360 360 360 361 361 360 361 361 357 354 353 353 353 352 351 351 351 353 357 355
327 326 327 329 331 333 335 341 349 350 356 354 359 361 361 359 359 359 360 360 359 360 360 360 361 361 361 362 362 362 361 361 357 354 353 353 353 352 351 351 351 350 351
326 326 326 326 327 327 329 335 336 339 344 354 357 361 362 362 360 361 361 361 361 361 361 361 361 362 362 363 363 362 362 361 361 358 356 356 355 355 354 354 354 354 354
325 326 325 324 325 325 326 327 331 333 337 347 361 361 362 364 362 363 362 362 362 362 362 362 362 362 362 363 364 365 364 363 363 362 358 357 356 356 354 353 353 351 350
325 325 326 325 324 324 324 324 325 329 333 341 360 363 363 365 365 363 365 364 364 363 363 363 363 363 364 363 364 365 365 365 363 363 357 356 357 357 356 356 355 357 357
322 322 325 323 322 322 321 321 322 325 329 334 349 363 364 365 365 364 363 366 366 365 365 364 365 364 364 365 363 365 365 364 363 358 356 355 356 356 356 355 355 356 359